GFSFLT2_sfc_30mbdewp_000.txt.gz
Dewpoint
62 62 63 65 64 64 65 64 64 65 65 65 66 66 66 66 65 64 65 65 65 64 64 63 62 62 64 64 64 64 58 55
60 61 61 62 61 60 60 62 63 64 65 65 63 64 65 65 63 63 64 64 64 64 63 63 62 62 62 62 62 63 60 56
60 61 61 60 57 55 60 61 61 61 62 63 62 62 62 63 59 59 62 62 63 64 63 63 62 62 61 60 61 59 59 57
51 58 59 58 54 55 61 62 61 61 61 61 60 62 61 61 59 59 57 57 56 63 62 61 60 57 56 53 53 54 56 55
45 50 55 57 57 57 59 62 60 58 59 59 61 59 59 60 59 58 57 56 57 56 61 60 60 59 57 57 56 56 57 57
40 47 52 54 53 53 54 52 52 53 57 59 60 60 59 59 59 58 56 56 56 57 58 58 60 60 60 59 57 57 56 55
36 41 46 48 50 49 48 47 46 47 49 53 54 56 58 58 55 56 55 57 57 57 55 57 59 60 60 59 58 57 56 55
33 35 40 41 45 45 43 41 39 39 43 48 51 52 56 58 56 55 57 59 59 58 58 57 58 59 59 59 58 57 57 57
29 30 35 36 39 36 34 33 32 35 41 47 49 49 52 53 51 51 51 56 57 59 59 60 59 59 57 56 56 57 58 57
26 22 30 31 32 30 29 31 31 34 40 42 43 43 44 45 46 48 49 50 51 51 50 52 56 58 57 56 55 54 56 57
25 27 27 27 28 30 33 34 30 32 35 35 37 36 37 35 37 40 40 39 42 42 43 48 48 50 52 55 56 56 56 55
25 26 28 28 27 28 29 30 31 30 29 31 33 33 32 30 32 35 32 30 29 31 31 33 38 46 44 49 56 56 57 56
24 25 27 26 26 25 25 25 28 29 28 29 32 28 29 29 27 28 29 30 32 30 27 26 28 35 33 42 46 55 55 55
23 23 25 25 23 24 24 24 24 24 27 31 31 31 30 27 27 26 29 26 27 29 29 26 23 28 30 29 40 46 52 53
26 23 23 24 24 24 24 25 26 25 25 26 30 33 33 33 31 30 29 30 27 28 28 28 24 23 28 31 26 36 41 46
28 24 23 23 26 22 24 21 19 20 24 25 28 31 33 34 34 34 35 33 30 28 25 27 27 25 22 23 34 28 25 25
30 25 24 23 26 28 26 25 23 24 26 28 29 30 32 32 33 35 36 35 33 33 33 29 28 27 25 23 22 24 25 30
31 28 25 25 27 28 28 26 26 25 25 25 24 25 25 27 29 30 31 32 32 32 33 33 32 30 28 26 23 22 20 19
28 27 25 25 27 28 29 29 29 26 25 22 24 22 22 22 23 24 23 24 25 26 27 28 29 28 27 26 25 23 23 21
27 24 25 25 27 28 29 27 23 22 22 21 20 21 21 22 23 22 22 23 23 23 23 23 24 28 28 29 27 23 22 22

GFSFLT2_sfc_30mbdewp_006.txt.gz
Dewpoint
61 64 64 64 63 62 63 62 63 65 65 64 65 66 65 64 64 63 61 62 63 63 63 63 63 63 63 63 63 63 63 61
57 57 64 63 60 59 60 62 62 64 65 65 65 65 63 62 61 61 60 61 59 58 57 62 62 62 63 62 62 62 62 60
58 59 60 59 59 59 61 61 62 63 62 63 62 63 62 61 59 59 59 58 57 55 53 54 57 59 62 62 61 60 57 58
50 56 59 60 56 53 62 61 61 61 61 61 61 60 61 61 60 60 59 58 57 56 55 54 53 53 56 61 59 56 53 56
48 54 59 60 58 60 60 59 60 59 59 59 60 58 59 59 59 60 59 57 58 57 56 55 53 55 55 55 58 59 58 54
45 54 56 57 57 55 57 55 55 55 56 57 57 57 57 57 57 56 57 57 57 57 56 54 54 54 55 55 56 58 59 58
43 49 53 55 53 53 52 50 49 49 51 52 54 53 55 55 54 54 55 55 56 57 56 55 55 56 56 56 56 56 58 59
42 45 49 50 52 51 50 47 46 45 47 50 52 53 54 54 53 52 52 53 55 56 57 57 57 58 57 58 58 55 56 58
39 42 46 47 48 47 46 42 41 43 47 48 48 49 48 46 46 46 48 50 51 52 53 53 55 57 58 58 58 58 58 59
36 33 39 41 42 39 38 38 40 42 46 46 45 44 44 44 43 44 43 43 43 41 41 42 48 50 54 54 54 55 57 57
33 31 31 36 36 37 36 38 38 40 43 43 42 40 38 37 39 42 40 37 36 36 36 35 34 35 36 43 43 46 49 54
33 33 33 35 35 35 37 38 38 37 38 39 38 37 35 35 37 37 37 35 36 37 37 37 37 35 32 32 37 39 47 54
32 31 33 33 32 32 33 34 35 37 37 36 37 36 36 35 35 34 36 35 36 36 37 36 35 37 35 32 32 33 36 38
33 32 32 33 32 33 32 34 34 35 35 36 35 37 34 35 36 33 34 34 35 37 38 35 36 34 35 34 31 30 33 33
35 33 32 33 32 32 33 33 32 31 31 34 37 36 38 37 37 36 35 36 36 37 35 35 34 36 34 34 32 30 32 31
37 36 34 32 35 31 31 30 29 29 30 31 32 39 38 36 36 37 37 36 35 37 36 39 37 35 36 36 35 34 32 30
38 38 37 35 34 34 32 32 32 32 32 32 32 33 33 33 33 34 36 37 37 37 36 36 37 37 36 36 35 35 34 33
38 38 37 37 36 35 35 32 33 34 33 32 32 32 32 33 32 32 32 32 32 32 32 32 32 33 34 34 33 32 31 30
38 38 37 37 38 38 35 36 35 34 35 34 31 30 28 29 28 29 28 28 28 29 29 29 30 30 29 29 29 29 29 29
35 34 34 35 37 38 37 36 35 35 35 33 28 27 26 27 26 27 27 27 28 28 28 29 29 29 29 30 30 30 29 28

GFSFLT2_sfc_30mbdewp_009.txt.gz
Dewpoint
64 64 64 63 62 62 61 62 64 65 65 65 66 65 64 64 64 63 64 64 64 64 64 63 63 63 63 63 63 63 63 62
63 64 63 61 60 60 61 61 62 64 65 65 64 63 62 62 61 62 62 62 61 60 62 63 62 62 62 62 63 62 62 61
56 58 62 61 58 59 60 61 62 63 63 63 64 63 62 59 60 60 59 59 57 56 56 59 57 56 58 60 61 60 59 58
54 56 58 59 59 60 60 62 62 62 62 61 61 62 61 59 59 59 59 58 58 57 55 54 53 54 55 60 58 57 57 57
52 57 59 59 59 61 61 60 60 59 59 60 58 59 59 60 60 60 59 57 57 56 56 55 53 53 54 54 55 55 56 57
52 55 57 56 55 58 58 58 57 58 58 58 57 58 57 57 56 57 56 57 56 56 56 55 52 53 54 55 55 55 55 57
49 53 55 55 53 52 51 50 50 51 52 52 54 56 56 56 55 53 55 55 56 56 56 55 54 54 55 55 55 55 55 56
46 49 51 52 53 51 49 47 46 46 49 51 52 53 53 54 54 53 52 53 54 54 53 53 55 57 57 57 57 57 56 56
42 44 48 48 51 49 47 45 44 45 48 48 47 51 48 47 46 47 47 49 51 49 50 50 50 52 53 56 56 56 58 58
39 40 45 45 47 46 45 40 40 44 47 46 45 44 46 45 45 43 39 42 42 35 37 35 37 36 38 41 53 50 48 49
36 32 38 39 38 40 39 39 39 43 47 45 44 42 39 38 42 40 37 40 37 36 35 36 34 35 34 33 33 34 38 41
34 32 30 36 36 35 38 37 36 40 44 43 42 40 37 35 40 40 37 37 38 36 35 37 37 34 36 35 34 37 36 37
31 32 33 34 32 32 33 35 36 37 36 40 40 39 36 34 35 38 38 36 37 37 37 35 33 36 34 34 33 33 33 33
32 32 32 33 32 33 32 32 34 35 36 37 38 38 36 35 34 35 34 34 33 34 39 36 37 35 35 33 30 32 32 34
34 33 33 34 32 32 33 35 35 33 34 36 37 36 37 37 36 37 36 35 34 36 35 34 33 36 35 34 32 30 33 33
36 35 35 34 35 31 30 30 30 30 30 31 35 37 38 38 37 38 38 37 36 38 38 37 36 35 37 36 36 36 34 32
38 38 37 37 36 36 32 31 33 32 32 32 35 38 40 39 38 37 37 37 34 33 32 31 34 34 33 34 34 34 35 32
37 37 36 37 37 37 37 34 33 33 33 33 35 36 33 32 31 31 30 29 28 29 28 26 25 28 30 31 31 29 28 29
36 37 37 37 38 38 38 37 36 33 33 35 31 32 30 29 28 28 29 29 29 28 27 28 28 27 29 29 31 30 29 27
37 37 37 37 38 39 39 39 39 36 36 36 33 29 29 30 30 30 29 31 32 34 32 28 29 29 28 29 30 30 30 30

GFSFLT2_sfc_30mbdewp_012.txt.gz
Dewpoint
64 64 64 62 61 61 61 63 64 65 65 66 65 64 64 64 64 64 64 65 65 64 61 61 63 62 63 63 63 63 63 62
63 63 63 62 61 61 61 61 63 64 64 64 63 63 63 62 63 63 63 62 61 63 63 63 62 62 62 62 62 62 60 60
63 63 62 60 58 59 61 61 61 63 63 64 62 62 61 60 61 61 60 59 58 57 57 58 56 57 58 60 60 60 58 56
56 58 60 61 59 59 60 61 61 61 62 63 63 62 60 60 59 59 59 58 57 57 56 55 53 53 54 56 58 57 56 57
55 56 59 58 59 59 61 61 61 61 61 60 61 60 60 59 59 60 58 58 57 56 55 54 53 53 53 53 54 54 55 56
54 56 57 55 59 61 60 59 60 59 59 58 58 58 58 58 58 58 57 56 56 56 55 55 53 51 52 53 54 54 55 55
52 55 56 54 53 52 52 53 54 53 53 53 56 57 56 57 56 53 54 55 55 55 56 55 54 54 55 55 55 55 55 55
51 52 53 54 52 51 48 48 47 49 51 51 53 55 55 55 54 54 53 53 52 51 51 50 50 52 53 55 57 57 57 57
47 49 50 49 51 50 48 45 44 47 49 49 50 51 48 52 51 51 50 51 51 48 46 43 41 41 38 41 50 52 47 48
44 46 48 48 50 48 47 45 44 45 47 47 46 47 47 45 45 44 42 46 45 36 36 34 35 35 35 36 39 38 37 39
39 41 46 44 46 45 42 42 39 42 47 47 45 44 43 41 45 42 38 40 38 35 35 35 34 34 34 35 35 33 35 37
36 32 39 39 38 38 38 39 38 40 45 46 45 43 41 38 41 41 38 38 37 37 35 37 36 34 35 33 34 33 34 34
33 31 30 35 34 34 33 35 36 37 39 45 44 42 40 37 36 40 39 37 37 37 36 36 34 36 34 34 33 34 34 31
31 31 32 33 32 32 32 32 33 35 36 39 43 42 40 36 35 36 38 38 37 37 38 36 36 37 34 34 30 31 31 34
32 32 32 33 33 33 33 34 35 34 34 36 38 41 40 37 36 36 35 36 33 34 36 35 33 37 35 34 31 28 33 32
34 35 34 34 34 33 31 30 30 31 31 33 36 39 39 39 38 37 37 38 37 38 37 37 36 33 35 37 36 36 30 28
36 37 36 36 37 36 34 32 32 32 33 32 32 35 38 39 39 39 40 39 35 30 28 26 29 28 28 29 28 29 32 28
37 38 37 38 38 38 37 36 35 34 34 34 33 36 38 39 38 35 32 31 30 30 31 30 30 30 30 29 29 27 26 27
37 37 37 38 38 38 38 39 39 37 36 35 35 34 32 31 31 31 32 34 35 36 36 36 34 30 28 28 28 29 30 30
37 38 39 38 38 38 38 39 40 40 39 37 36 34 31 32 34 36 37 38 38 38 36 35 33 30 29 29 29 29 30 29

GFSFLT2_sfc_30mbdewp_015.txt.gz
Dewpoint
63 63 63 61 61 61 63 64 64 65 65 65 64 64 64 65 65 65 65 65 65 63 60 60 61 62 62 63 63 63 62 61
62 62 62 61 61 61 61 63 64 64 65 64 63 63 62 63 64 63 63 62 62 63 63 62 61 61 61 61 61 61 59 58
62 62 62 60 59 59 61 61 62 64 64 64 63 62 61 60 61 61 60 59 58 57 57 56 55 54 55 57 60 59 57 57
62 62 62 61 58 58 60 61 62 62 62 63 62 60 59 60 59 58 59 58 58 57 57 55 54 53 53 53 54 54 54 55
59 59 60 60 60 58 59 60 61 61 61 61 61 61 60 59 59 59 58 57 56 55 54 54 51 50 51 52 53 53 54 55
54 57 56 55 59 59 60 60 60 59 59 59 59 58 59 58 58 58 57 56 55 55 55 55 54 53 54 54 54 55 55 55
53 56 56 54 58 56 58 57 59 58 57 55 57 57 56 56 56 55 54 55 55 55 55 54 54 53 54 54 54 56 56 56
52 54 55 53 52 51 51 51 52 52 52 52 54 56 55 55 55 53 54 54 53 51 49 47 47 48 47 47 51 55 52 50
51 52 54 53 51 51 48 47 47 47 50 51 52 53 52 54 54 53 52 51 50 48 45 39 37 37 35 37 44 46 39 40
49 49 50 49 51 50 49 47 45 45 48 49 48 50 49 48 48 49 48 49 47 37 36 34 34 35 34 35 35 35 34 36
45 46 48 48 49 49 47 45 44 43 46 47 47 46 47 46 45 45 42 42 43 36 35 35 33 33 33 35 34 33 33 35
41 41 46 46 43 42 41 40 40 40 41 46 47 46 45 42 43 44 40 39 39 37 35 36 35 34 34 34 34 34 34 34
36 33 40 39 37 35 35 35 36 38 38 42 46 46 44 41 40 42 40 37 36 37 36 34 35 36 34 33 33 34 33 32
34 32 31 33 34 33 33 33 34 36 37 38 41 44 44 42 38 39 40 38 37 37 36 36 36 37 32 34 30 31 31 33
32 32 32 33 33 33 33 34 34 34 34 35 37 43 44 43 39 37 39 40 37 37 37 36 33 36 36 33 30 27 32 31
33 33 34 34 34 34 32 31 31 31 32 33 35 38 41 43 41 38 37 38 38 37 38 37 36 34 35 37 32 34 23 17
35 37 38 38 38 37 36 36 35 35 35 34 34 35 39 41 41 40 39 39 38 37 34 30 29 28 27 27 28 30 31 27
37 37 37 39 38 38 38 38 38 38 38 37 37 37 36 39 40 40 38 34 32 32 32 32 32 32 32 32 31 27 24 25
38 39 38 39 39 38 39 39 39 39 39 39 38 37 35 35 36 34 35 37 38 39 38 37 37 35 35 34 33 33 31 29
39 39 38 39 39 39 41 38 37 38 39 40 39 36 33 36 37 38 39 39 39 39 38 38 39 38 36 35 31 30 30 29

GFSFLT2_sfc_30mbdewp_018.txt.gz
Dewpoint
61 62 62 61 61 62 63 64 64 65 64 64 63 64 64 65 65 65 64 64 64 63 62 63 63 62 62 62 62 61 59 58
61 61 61 60 59 61 61 62 64 64 64 63 63 62 62 63 62 62 61 61 61 61 59 58 58 57 58 60 60 58 57 56
61 61 61 60 58 59 61 61 62 64 64 63 62 61 60 60 61 60 60 59 58 58 57 56 54 54 55 55 56 55 54 54
61 61 61 60 58 57 59 60 61 62 63 62 61 60 59 59 59 59 59 59 58 57 56 54 52 51 51 52 53 53 54 54
61 61 61 61 60 58 58 60 60 60 60 62 61 61 59 59 58 58 57 57 55 55 54 54 51 51 53 53 54 55 55 55
59 58 58 58 59 59 58 59 60 60 60 59 60 60 59 58 57 58 57 56 54 54 54 55 53 53 54 53 53 54 55 55
53 56 57 55 58 58 59 59 59 59 58 58 58 58 57 57 57 56 56 55 54 54 54 53 52 50 51 52 53 55 52 50
52 55 56 54 56 56 57 56 56 56 56 54 54 56 56 55 55 54 53 54 54 51 48 45 44 45 39 40 43 52 41 40
50 53 55 53 52 51 51 51 51 51 52 52 52 54 55 55 54 53 53 53 51 48 47 40 37 37 35 36 40 40 37 37
49 52 53 53 52 51 50 48 47 46 48 49 50 51 51 52 53 52 52 51 50 44 37 34 34 34 34 34 35 35 34 35
47 49 49 49 49 50 49 48 47 45 45 47 48 48 50 48 48 49 49 47 48 42 36 34 33 33 33 34 34 34 33 34
45 46 47 47 47 46 44 43 42 42 42 44 46 47 47 47 46 46 45 43 42 40 35 36 34 33 33 34 34 34 34 34
42 41 41 44 42 39 37 36 37 38 38 40 42 45 46 46 44 44 44 42 40 39 36 34 35 37 34 33 33 34 34 34
39 37 34 39 39 35 34 34 34 36 37 37 39 42 45 45 44 42 43 42 40 38 36 35 35 37 32 33 29 30 32 33
35 34 34 33 33 34 33 34 34 33 33 34 34 37 40 43 44 42 41 42 40 38 37 36 33 36 36 31 30 28 30 30
33 34 35 36 36 35 35 34 34 34 34 35 35 36 37 40 43 43 41 40 40 39 38 38 36 34 37 37 33 32 20 18
37 38 39 39 39 39 38 37 38 39 39 38 39 38 38 38 40 42 42 40 40 39 38 37 35 35 27 30 28 30 30 23
39 39 39 39 39 40 39 39 39 38 37 38 39 40 39 38 39 41 40 37 35 33 34 33 33 34 34 34 32 31 29 29
39 39 39 39 40 40 39 36 36 35 36 37 38 39 35 35 36 37 38 38 38 38 38 38 38 38 38 38 38 37 36 33
39 39 39 39 40 40 39 35 34 35 36 37 38 37 35 38 38 39 39 39 40 40 40 40 40 39 38 36 35 35 35 34

GFSFLT2_sfc_30mbdewp_024.txt.gz
Dewpoint
55 57 60 62 62 63 63 64 64 64 63 63 63 64 64 65 64 64 64 64 64 63 62 62 61 60 61 60 60 58 57 56
57 58 58 58 58 60 62 63 64 64 63 62 62 62 62 63 63 62 62 62 62 61 59 59 58 57 57 58 57 57 56 55
59 58 60 59 57 59 60 62 63 63 62 62 61 58 58 59 60 61 60 59 59 58 57 56 55 55 55 54 53 51 53 53
59 61 61 61 56 58 59 59 58 59 59 60 58 60 59 57 59 60 59 59 58 57 55 52 51 48 48 52 48 51 50 50
59 62 63 61 56 55 54 55 57 59 61 61 60 60 59 59 58 58 58 58 54 53 52 48 50 50 48 50 49 50 47 47
59 61 62 60 54 53 54 54 56 57 58 62 60 58 57 58 56 56 56 54 55 53 50 53 53 51 49 49 49 48 46 46
58 61 60 54 57 55 57 57 56 57 58 59 60 57 56 56 55 54 53 52 52 51 51 51 50 48 45 45 43 45 47 40
58 59 56 54 54 56 55 56 55 57 55 55 60 59 55 53 51 49 48 49 49 50 50 49 45 43 41 39 37 40 39 37
57 57 54 54 53 53 53 51 55 51 50 54 56 57 53 53 48 47 45 47 51 52 51 50 47 42 38 37 37 41 37 36
55 54 52 52 51 52 50 48 49 47 48 48 51 52 53 51 48 46 46 47 48 48 48 46 44 41 37 34 34 35 37 37
53 54 53 50 51 50 51 51 49 46 47 46 46 49 50 50 47 46 47 47 46 47 46 46 43 40 37 35 35 35 35 34
50 52 51 51 50 50 47 47 45 45 42 41 43 43 45 47 45 46 47 46 45 45 46 45 44 41 36 32 33 35 35 34
49 48 49 48 46 44 41 40 38 38 38 39 43 43 43 44 44 44 44 45 46 46 45 45 45 43 41 37 36 36 38 37
43 42 41 39 37 38 40 40 39 41 42 42 42 42 42 41 42 43 43 43 44 45 47 46 44 43 41 38 33 33 36 38
39 40 41 42 41 40 40 39 39 38 38 38 39 40 40 40 40 41 42 43 42 43 44 44 44 44 42 40 35 32 33 34
41 41 40 41 43 40 41 39 38 39 39 39 38 37 37 38 39 40 41 41 41 41 41 43 43 42 42 42 42 40 36 34
42 41 41 41 42 42 41 40 39 39 39 38 37 35 34 34 38 40 41 41 40 42 43 43 43 42 41 41 41 40 39 38
41 40 39 41 41 42 41 40 39 37 36 33 31 31 31 33 36 39 41 41 41 41 41 41 41 41 40 39 38 37 36 37
40 40 38 38 38 38 38 36 35 34 34 32 33 32 32 34 38 39 40 41 41 40 40 40 40 40 39 38 37 37 36 35
41 40 38 37 36 36 36 36 36 36 35 35 34 33 34 37 39 40 39 39 39 40 40 40 38 38 36 36 35 35 36 35

GFSFLT2_sfc_30mbdewp_027.txt.gz
Dewpoint
51 55 59 62 62 63 63 64 64 63 63 63 63 64 64 64 64 64 64 63 63 62 62 61 61 60 61 60 59 59 57 52
51 53 55 57 59 62 63 63 63 63 62 62 62 62 62 62 63 62 62 62 62 61 59 59 58 57 57 57 57 58 57 50
53 52 55 54 53 58 61 62 62 62 61 60 60 58 58 59 59 60 60 59 59 58 57 56 56 56 56 54 54 49 48 47
53 55 56 55 50 53 54 54 55 56 56 57 54 57 58 55 58 59 59 59 59 58 57 55 54 48 51 53 50 46 46 45
50 57 57 55 51 50 50 50 51 54 57 57 56 55 55 55 55 59 60 59 54 57 54 51 47 48 45 46 46 46 43 42
50 55 57 55 50 47 48 49 51 51 54 56 55 53 53 53 51 51 50 50 50 51 49 49 52 51 49 47 46 46 41 42
50 56 59 51 51 49 51 52 51 54 53 54 55 52 52 52 51 50 49 48 47 47 47 47 48 48 46 44 43 41 43 44
49 55 58 50 49 51 50 52 51 52 50 51 53 53 51 51 49 47 46 45 45 46 45 46 46 44 43 42 41 37 36 40
49 55 56 53 50 50 47 47 48 47 46 48 50 51 49 50 47 46 45 45 46 46 47 47 46 45 42 41 38 39 38 39
48 52 54 55 48 48 46 45 46 45 44 45 47 49 50 49 47 46 46 48 46 46 45 45 44 43 42 40 37 36 36 39
48 51 54 53 49 48 47 48 47 43 44 44 44 46 46 47 46 46 47 46 46 46 45 46 44 44 43 41 39 37 37 36
50 51 53 52 50 48 45 44 43 42 41 40 42 43 44 45 45 45 46 45 45 46 48 46 46 46 43 41 42 39 38 39
48 50 51 49 46 44 41 40 40 39 39 42 44 44 44 44 43 43 44 43 45 47 48 47 48 47 46 46 44 43 42 39
43 43 43 41 39 40 41 42 41 42 42 42 41 42 42 41 40 40 39 41 43 44 46 46 46 47 45 45 42 42 41 41
41 41 42 43 42 40 40 39 39 39 39 41 41 42 41 40 39 39 40 41 40 42 42 42 42 43 45 44 41 39 39 40
41 41 41 41 43 41 43 42 41 41 42 41 41 40 37 36 34 35 38 40 41 41 39 43 42 41 41 41 43 44 42 41
43 40 41 42 43 43 43 42 40 38 38 37 36 33 33 32 33 35 38 40 41 41 42 41 40 40 39 42 42 42 42 41
42 41 40 40 41 41 40 39 38 35 35 34 33 34 33 33 33 36 38 39 39 40 43 42 42 41 41 41 39 39 38 37
42 40 40 39 39 38 38 37 36 35 35 35 36 34 32 31 34 37 37 39 41 41 40 40 40 39 39 38 38 36 36 35
42 41 38 37 37 38 38 38 37 38 38 38 36 33 32 34 36 40 41 42 41 41 41 40 39 39 38 38 37 37 37 36

GFSFLT2_sfc_30mbdewp_030.txt.gz
Dewpoint
56 60 62 62 62 63 63 63 63 63 63 63 64 64 64 64 64 64 63 63 63 62 62 61 60 60 60 60 60 59 59 58
54 57 59 60 61 62 63 63 62 62 61 61 62 62 62 63 63 62 62 61 61 60 59 59 58 58 57 56 55 55 54 56
53 55 56 60 60 61 62 62 62 62 60 59 61 62 62 61 59 59 59 58 58 57 57 56 56 56 57 56 55 53 51 50
55 55 56 54 50 59 61 61 62 62 61 60 61 57 57 55 59 59 59 59 59 58 58 56 56 54 55 56 55 52 48 46
54 57 57 55 53 52 55 57 58 58 57 57 57 56 59 59 60 59 60 60 60 59 58 57 54 53 52 52 51 49 48 47
55 56 56 54 53 52 52 52 55 54 58 57 58 56 56 54 55 54 56 57 55 52 52 52 52 53 53 51 50 49 47 46
53 56 56 54 51 53 54 53 56 55 54 56 56 55 56 55 53 53 52 50 49 50 49 50 50 51 51 49 47 46 46 45
53 57 58 51 51 52 52 54 55 55 53 54 53 55 55 54 52 51 50 49 49 49 49 50 50 50 48 47 45 44 42 42
50 55 58 54 51 52 50 50 48 49 50 51 51 52 53 52 52 51 50 51 50 50 51 50 50 49 48 48 46 44 42 41
49 52 57 56 54 51 49 49 49 47 47 48 49 49 50 51 51 51 51 51 50 51 50 49 49 48 48 47 45 44 42 42
49 51 54 56 55 50 50 49 49 49 48 47 49 48 49 49 49 50 51 50 50 50 49 49 48 48 47 46 47 45 42 41
50 51 55 55 53 51 49 47 47 47 46 46 47 46 48 48 48 48 50 49 48 49 50 51 50 50 48 47 47 48 46 44
50 50 50 49 49 46 44 44 43 43 43 45 45 46 45 46 46 46 45 45 46 47 47 47 47 49 49 47 47 47 48 46
44 44 44 44 43 43 44 44 44 44 44 43 44 46 45 44 44 44 44 44 44 45 45 46 46 46 46 45 43 43 44 45
42 42 43 44 45 43 44 45 44 42 45 45 45 45 44 43 41 40 42 43 43 44 43 43 43 44 44 43 41 39 41 43
43 42 42 43 45 45 46 45 44 43 41 42 42 39 40 38 38 40 41 42 43 43 42 44 44 42 43 43 44 44 42 41
44 42 41 43 43 43 43 43 42 41 40 39 38 40 39 39 37 38 41 41 42 44 44 43 43 42 41 40 40 39 39 39
44 42 41 42 41 42 41 41 41 39 40 39 40 40 38 37 37 38 41 44 43 43 43 42 41 40 39 39 38 37 36 36
43 43 41 40 40 41 41 41 41 40 40 41 40 38 37 36 40 43 42 42 42 42 42 41 40 39 38 38 38 37 37 36
40 41 40 38 39 41 43 43 42 41 41 40 38 37 36 42 42 41 41 40 40 40 40 40 41 40 38 37 37 38 38 37

GFSFLT2_sfc_30mbdewp_033.txt.gz
Dewpoint
61 62 62 62 62 62 62 62 63 63 62 63 63 63 64 64 63 63 63 63 62 62 61 60 59 59 58 58 57 56 56 55
58 59 61 61 62 62 62 61 61 60 61 61 62 62 63 62 61 62 62 61 61 60 58 57 57 57 57 57 57 56 51 53
58 58 59 59 61 61 61 61 60 60 60 60 61 61 62 62 62 60 59 59 58 57 56 56 55 55 54 55 56 55 52 50
56 58 60 60 58 60 60 61 61 60 60 60 61 61 62 61 59 58 58 59 58 58 58 57 57 55 53 54 55 53 52 48
57 56 55 56 57 59 60 60 61 61 61 59 60 58 59 58 59 59 59 59 59 59 59 58 56 54 53 53 52 50 49 48
56 56 54 53 53 54 58 58 59 59 59 57 55 56 56 56 59 58 59 59 59 59 58 56 55 53 53 52 51 49 47 47
55 55 55 52 51 53 53 55 56 55 58 57 55 54 54 54 53 52 51 51 50 50 49 49 49 49 50 51 50 48 46 45
56 55 56 51 53 51 52 53 55 53 56 54 55 55 53 53 52 51 50 50 50 50 48 48 48 49 49 49 48 47 45 43
55 57 53 50 52 51 51 55 48 51 52 52 53 52 52 52 51 51 52 53 50 50 49 50 50 50 50 49 49 48 46 43
56 59 56 53 51 51 49 50 49 48 49 51 51 50 50 51 50 49 50 50 49 49 49 49 49 49 49 48 48 47 46 44
55 58 59 60 58 53 50 48 47 47 50 50 49 48 48 47 47 48 49 50 50 50 50 50 49 49 49 48 48 47 47 45
53 53 54 56 55 53 51 49 47 48 47 46 45 47 47 47 46 46 47 45 46 45 45 45 46 47 47 47 49 49 49 48
45 44 46 47 45 43 44 42 43 44 46 45 44 47 47 45 45 44 44 44 43 44 45 43 43 45 44 45 45 46 47 47
44 43 44 44 45 44 45 45 44 45 46 46 46 44 44 44 42 42 43 43 44 44 42 41 43 44 43 43 40 41 42 44
43 43 43 45 45 46 46 46 45 43 42 43 40 41 40 39 38 39 40 42 42 42 42 44 43 44 44 43 40 39 40 41
43 42 42 44 44 44 43 43 42 42 41 41 41 41 40 38 38 38 40 42 43 44 43 43 42 40 41 39 40 39 35 34
43 43 43 43 44 43 42 42 41 41 40 40 41 41 38 38 38 42 43 43 42 42 42 41 41 40 39 37 36 35 37 35
43 42 42 41 42 43 42 42 41 40 40 41 40 39 38 41 42 42 42 42 42 42 41 41 40 39 38 37 37 35 34 34
42 41 39 39 41 42 42 41 41 40 41 39 38 37 39 42 41 40 40 41 40 40 40 40 40 39 37 36 36 36 37 36
39 39 38 40 42 40 39 39 39 40 40 38 37 38 40 40 40 39 39 39 39 39 39 40 39 38 38 39 38 37 38 37

GFSFLT2_sfc_30mbdewp_036.txt.gz
Dewpoint
62 62 62 61 61 62 62 62 62 63 63 63 63 63 62 63 63 63 62 62 62 60 59 58 58 58 57 57 56 57 54 51
59 60 61 60 60 60 60 60 61 61 61 61 61 62 62 62 62 62 62 62 61 60 58 57 56 55 54 54 56 56 53 51
58 59 59 59 60 60 60 60 60 60 60 60 61 61 62 62 61 60 60 60 59 58 57 56 56 55 54 54 56 54 52 51
56 58 58 59 59 61 60 60 60 59 60 60 60 60 61 62 61 59 59 59 58 58 58 58 58 56 54 53 53 52 51 48
56 58 59 58 58 60 59 60 60 60 59 59 60 61 61 61 59 59 58 59 59 59 59 58 57 56 54 53 53 52 50 48
57 57 59 58 58 58 59 59 60 60 61 60 58 58 58 59 59 58 58 58 58 58 57 57 55 55 53 53 53 52 50 48
56 55 54 52 54 55 57 58 59 60 60 57 55 55 54 54 53 53 52 51 51 50 51 49 48 48 48 49 50 50 49 48
55 54 53 50 52 53 53 56 56 56 58 56 54 55 53 53 51 52 51 51 51 50 49 49 49 50 50 50 50 49 48 47
54 55 53 52 52 51 52 54 53 56 56 55 55 53 53 51 51 50 50 52 51 50 50 50 50 50 50 50 50 49 49 48
56 56 53 54 53 53 50 52 49 50 53 53 53 53 51 51 50 49 50 49 49 48 48 46 46 47 48 48 49 49 48 48
58 56 56 57 57 55 52 50 49 49 50 51 51 50 50 48 48 48 48 45 45 45 44 46 45 44 44 45 46 48 47 49
54 55 58 59 57 53 48 46 45 48 47 46 47 49 47 46 46 45 45 44 43 44 44 43 43 42 43 42 46 46 47 46
48 48 49 49 48 46 45 44 44 46 46 46 46 44 43 41 42 41 42 42 43 43 43 41 40 44 43 41 43 42 44 43
44 44 44 45 45 46 46 46 45 43 43 42 41 40 39 38 39 40 41 41 40 41 43 42 44 44 42 42 39 39 41 38
43 43 44 44 44 44 44 45 44 42 41 41 41 39 38 37 38 39 41 42 42 43 43 42 42 42 41 40 36 36 34 36
43 43 43 44 44 43 42 42 40 41 41 41 41 39 38 39 41 42 43 43 42 42 42 41 40 39 40 38 39 38 32 29
42 42 42 42 43 43 42 41 42 42 42 41 40 39 39 42 42 42 41 41 41 41 41 40 40 38 37 37 37 36 36 33
43 39 39 41 42 42 42 41 41 40 41 40 39 39 41 41 41 41 41 40 40 41 40 40 39 38 38 36 34 33 33 33
40 39 39 42 42 41 41 40 40 40 41 38 37 37 40 40 39 39 39 39 39 38 38 38 39 37 38 36 36 35 36 35
40 39 40 40 35 32 34 36 36 37 38 38 38 39 40 40 39 38 38 37 37 37 37 37 38 35 36 37 38 36 37 36

GFSFLT2_sfc_30mbdewp_042.txt.gz
Dewpoint
64 65 66 66 66 66 66 66 65 65 64 63 63 62 63 63 63 62 61 60 59 59 58 57 57 57 57 58 57 56 51 50
59 61 61 61 62 63 63 63 63 62 62 61 62 62 62 61 61 61 60 59 59 58 58 57 57 57 56 56 57 53 51 49
58 58 59 59 59 61 61 61 61 60 61 61 61 61 61 61 60 60 60 59 59 59 59 59 59 57 56 56 53 52 52 50
57 58 57 58 59 60 59 60 60 60 60 60 60 60 60 61 61 61 60 60 59 59 59 59 58 57 55 55 53 53 52 51
56 57 57 57 57 58 58 59 59 59 59 59 59 60 60 60 60 59 58 58 57 57 57 57 57 55 53 53 52 52 52 52
55 57 57 57 57 58 57 58 58 58 58 58 58 58 59 59 59 58 57 56 53 52 51 50 49 50 50 50 50 50 51 51
54 56 57 57 57 57 57 58 59 59 59 60 59 58 57 57 58 55 52 51 51 50 50 49 48 48 47 47 47 48 49 49
54 56 58 57 56 57 57 57 58 59 59 60 59 56 55 54 52 51 51 51 50 49 48 46 45 45 43 44 45 44 45 48
56 56 54 54 53 52 53 55 56 56 57 58 56 55 53 52 51 49 49 48 46 45 44 44 43 42 40 41 42 41 44 45
56 56 57 57 56 53 51 50 50 51 53 53 52 52 51 49 47 46 46 45 44 44 44 41 41 40 41 41 40 41 42 46
57 59 58 57 58 54 51 50 50 50 49 48 48 48 46 43 42 43 43 42 42 41 41 40 38 39 42 41 40 41 43 45
59 59 58 56 54 52 51 47 44 44 43 43 42 42 42 41 41 41 40 39 39 40 39 40 40 43 42 41 40 41 44 38
58 58 57 54 52 47 45 42 43 41 41 40 39 39 39 39 39 39 40 39 41 42 42 41 41 42 41 38 39 41 39 34
53 51 50 48 46 45 43 42 41 41 40 39 38 38 38 38 39 39 40 40 41 41 40 39 40 41 38 37 32 32 36 34
44 44 44 44 45 45 45 43 42 40 40 39 39 39 39 40 40 41 41 41 39 39 40 38 38 39 39 37 32 31 34 33
43 43 42 43 43 41 40 39 39 40 41 40 39 39 41 41 41 41 40 39 38 38 40 39 38 37 37 38 37 37 33 31
43 43 43 43 43 42 41 41 42 42 42 41 40 40 42 41 40 39 37 38 38 39 39 38 38 37 37 36 35 34 33 32
42 41 42 42 42 42 41 41 40 39 40 40 39 39 40 40 38 38 38 37 37 37 37 36 36 37 37 35 33 31 29 30
39 41 41 41 40 39 39 38 36 34 35 35 36 37 38 39 38 37 37 37 37 37 36 35 35 35 34 34 35 35 34 35
39 41 38 33 32 32 33 32 31 33 35 37 37 37 38 38 38 38 37 37 37 36 36 35 35 35 35 34 34 35 37 36

GFSFLT2_sfc_30mbdewp_045.txt.gz
Dewpoint
66 66 67 67 67 66 66 67 66 65 64 64 63 62 62 62 62 61 61 60 59 59 58 58 58 58 58 57 56 54 49 48
64 64 64 65 65 65 65 65 63 63 63 62 62 62 61 61 60 60 60 60 60 59 59 59 59 58 58 57 54 53 52 50
60 60 61 61 61 62 62 62 62 61 61 61 60 60 60 60 59 60 60 60 60 60 60 60 59 57 56 56 54 52 52 51
57 59 58 59 58 60 61 60 59 60 60 61 60 61 61 60 61 60 60 59 59 59 58 57 57 53 51 52 51 52 51 51
57 58 58 58 58 59 58 59 59 59 60 60 61 61 61 61 61 60 60 58 57 55 54 54 53 52 52 52 51 51 51 50
56 58 58 58 58 58 58 58 58 58 59 60 60 60 61 61 60 60 58 55 53 52 52 53 52 50 49 48 49 48 47 47
55 57 58 58 58 58 58 59 59 60 60 60 61 60 60 59 59 56 53 53 52 52 51 48 47 46 45 44 44 42 41 42
55 57 59 58 57 57 58 59 59 60 61 61 61 59 58 56 54 53 52 50 49 47 47 45 44 43 42 42 41 39 40 41
56 57 57 55 54 53 53 53 54 56 58 59 58 58 56 54 52 50 48 47 47 46 45 44 41 39 39 38 38 38 39 43
56 57 57 57 55 54 52 52 53 55 55 56 56 55 53 50 47 46 46 44 43 43 41 40 38 37 38 38 37 38 39 43
58 58 58 57 56 56 56 53 52 52 51 50 50 48 47 45 45 44 43 41 41 39 38 39 36 37 36 34 38 33 38 39
59 59 58 56 56 55 52 50 46 46 47 44 45 44 44 43 41 42 41 40 40 40 39 38 38 39 33 33 34 32 42 38
59 58 57 56 54 50 46 45 44 43 42 42 42 41 41 42 41 41 41 40 41 40 38 37 34 38 34 29 31 42 42 36
58 57 55 53 50 47 45 43 43 42 41 41 41 42 42 41 42 41 41 39 40 39 39 35 34 38 33 30 24 27 34 36
52 51 52 51 48 47 45 44 43 41 41 40 41 42 42 42 42 42 41 39 37 37 38 37 33 36 39 34 27 23 31 30
45 45 45 46 46 45 44 41 40 42 42 41 40 42 43 42 42 41 40 39 37 37 37 38 38 33 35 37 37 36 31 28
45 45 45 45 45 45 43 43 43 43 43 43 42 42 42 41 41 40 38 37 37 37 36 36 36 35 33 34 33 32 32 31
44 44 43 44 44 44 44 43 41 39 39 39 39 40 41 41 40 40 39 38 37 36 37 37 36 36 35 34 32 30 29 29
42 43 42 42 41 40 39 38 35 32 33 32 34 36 38 39 41 40 38 38 38 38 37 37 37 36 36 34 35 34 33 32
42 42 38 35 35 35 35 34 32 32 34 34 35 36 36 39 40 40 39 39 38 38 38 38 38 38 37 36 35 34 34 35

GFSFLT2_sfc_30mbdewp_048.txt.gz
Dewpoint
64 65 67 68 67 67 66 67 66 66 64 64 63 62 63 62 62 61 60 60 59 59 59 59 60 59 58 57 54 53 46 43
61 62 62 62 64 66 66 65 64 63 63 62 62 61 60 60 59 60 60 60 60 60 60 60 59 58 57 55 53 53 46 44
59 58 59 59 57 62 63 63 62 61 61 61 59 56 57 57 58 60 60 60 60 60 60 58 57 55 53 52 52 46 46 45
55 56 56 55 52 57 57 55 54 57 57 59 57 59 59 58 60 60 59 58 58 57 56 55 55 48 47 49 46 48 46 46
53 56 56 54 54 54 52 52 55 58 60 60 60 59 59 59 59 58 58 56 52 51 51 50 52 51 49 49 47 46 45 44
52 55 56 56 54 53 55 55 57 57 59 61 60 61 60 60 58 59 58 53 53 51 50 53 51 50 48 47 46 45 42 42
53 56 55 56 57 57 57 58 58 59 59 60 61 61 61 59 59 57 54 53 52 51 50 49 48 46 46 45 43 42 41 40
55 56 57 57 57 59 58 59 58 60 60 62 62 62 61 59 56 54 52 51 49 48 48 46 45 44 43 43 43 42 41 41
55 57 58 58 56 55 54 54 54 55 58 60 60 60 59 58 55 52 49 48 48 46 45 44 42 41 40 40 41 40 39 40
55 58 58 57 57 56 56 56 56 58 57 58 58 58 56 53 50 49 47 45 44 42 42 40 39 39 39 39 37 37 36 35
57 59 58 58 57 58 58 57 57 54 52 51 51 50 48 47 46 45 43 42 42 41 41 40 38 36 34 29 28 30 27 27
58 59 58 58 58 58 57 54 48 48 46 46 45 45 45 43 43 44 42 42 41 41 39 36 35 32 32 27 30 29 28 33
59 58 58 59 58 54 50 46 45 44 42 44 43 43 44 44 42 43 42 41 40 38 35 31 29 31 32 26 26 28 37 35
58 57 57 57 55 49 46 45 42 41 42 44 43 44 44 42 44 42 41 36 36 35 34 31 28 29 33 31 21 21 23 32
55 56 56 53 48 47 46 45 42 41 42 41 43 44 44 44 42 39 37 35 31 33 33 32 29 28 30 32 27 22 27 25
49 51 49 49 47 44 41 39 39 42 42 42 42 44 43 40 38 37 35 35 34 32 29 34 31 28 27 28 30 30 29 25
45 44 44 46 46 44 43 42 43 42 42 41 41 40 40 37 36 36 35 34 33 35 34 33 32 30 28 28 28 27 26 26
46 44 44 45 45 45 44 43 39 35 33 32 31 31 31 33 34 35 35 36 35 35 35 34 33 32 30 31 30 30 31 30
45 43 43 44 43 41 38 36 34 32 32 30 29 27 28 30 32 34 35 35 37 36 34 33 33 32 32 31 31 29 28 27
43 42 41 39 38 35 35 33 32 32 31 32 31 30 31 32 35 36 37 37 37 36 35 34 34 34 33 31 29 27 28 28

GFSFLT2_sfc_30mbdewp_051.txt.gz
Dewpoint
65 66 67 68 67 66 66 66 66 65 64 64 63 63 63 62 61 60 60 59 59 59 59 60 59 58 56 54 52 52 49 42
63 64 64 64 65 66 66 65 64 63 62 61 61 60 60 60 60 60 60 60 60 60 60 59 58 55 52 51 51 52 46 44
56 56 57 58 60 64 64 63 62 61 60 60 58 55 57 57 58 60 60 60 60 59 59 57 56 57 51 48 49 45 45 44
55 56 56 53 50 56 55 54 52 55 56 57 56 57 58 58 58 59 59 58 58 57 56 55 55 48 48 49 45 47 45 45
53 54 54 50 53 52 51 51 55 57 59 58 59 57 58 57 56 59 59 58 53 53 52 50 51 51 48 48 48 46 44 43
52 54 54 52 51 48 50 50 54 55 57 60 59 58 60 59 55 55 56 53 52 50 49 53 51 50 48 47 47 46 44 44
52 53 54 56 54 56 56 56 58 60 60 61 62 62 60 60 60 57 55 53 51 51 50 49 49 48 47 46 46 45 45 44
53 54 55 56 58 59 59 58 58 58 59 61 61 62 61 59 57 55 53 52 51 50 49 48 47 47 45 44 44 44 44 43
54 55 57 57 57 56 56 55 55 56 57 59 60 61 60 59 56 53 51 49 49 47 47 46 44 43 42 42 42 41 39 40
55 56 58 58 57 57 57 57 57 58 57 57 57 57 56 53 51 50 49 46 44 45 43 42 41 40 38 37 36 32 32 34
56 59 60 58 57 56 58 57 57 57 54 52 53 52 50 48 47 46 44 42 43 43 41 39 37 35 32 31 32 29 31 30
57 60 59 58 59 57 57 56 55 53 49 48 47 46 45 43 44 45 43 42 42 41 40 36 33 31 29 31 33 29 29 30
60 59 58 59 58 55 53 51 50 46 44 44 44 44 44 45 42 43 43 39 39 38 35 32 30 29 28 28 29 31 30 31
59 58 58 57 52 52 51 48 44 41 43 45 45 45 45 41 45 41 40 38 34 33 34 32 30 28 27 26 26 25 23 28
57 55 55 52 48 47 46 43 43 41 43 43 45 44 44 43 41 39 37 34 31 33 32 31 29 28 27 25 23 22 24 25
49 49 49 47 45 42 42 38 39 43 43 43 43 44 41 39 37 35 35 35 34 33 31 34 31 28 27 25 26 26 25 25
48 47 45 46 45 43 43 42 43 43 42 42 40 40 38 37 34 33 35 34 33 34 34 33 31 29 28 28 28 29 29 29
45 44 44 45 45 46 45 44 42 39 36 36 34 31 30 30 31 33 33 33 33 33 37 36 33 33 32 33 31 31 30 31
45 43 43 45 45 45 42 40 37 36 35 33 31 28 28 29 31 32 31 31 32 35 36 36 33 34 34 33 33 31 30 28
44 43 43 44 42 39 38 36 35 35 33 32 32 31 32 33 32 32 31 32 35 33 37 37 35 36 34 34 33 31 29 27

GFSFLT2_sfc_30mbdewp_054.txt.gz
Dewpoint
66 67 68 67 67 66 66 67 65 65 64 63 63 62 62 61 61 60 60 60 59 59 59 59 57 54 51 49 49 51 52 47
65 66 67 66 66 66 66 65 63 62 61 61 60 60 60 60 60 60 60 60 60 59 59 58 57 55 52 48 47 50 51 48
64 64 65 65 65 65 64 63 62 60 59 60 59 57 58 59 59 59 59 58 58 58 57 55 56 57 55 52 51 50 48 48
59 60 61 61 58 63 61 59 58 58 57 57 59 60 59 58 58 58 59 59 58 58 56 54 55 54 56 53 52 50 49 47
57 58 55 54 55 58 56 56 58 59 60 60 60 60 60 59 61 61 60 59 60 58 56 56 54 54 51 51 50 49 48 47
55 56 56 55 54 55 52 55 58 60 61 61 61 61 61 61 61 61 59 58 55 55 54 54 53 51 51 50 49 49 48 48
55 55 56 54 56 59 61 62 61 62 62 62 63 62 60 60 60 59 58 56 54 53 52 51 50 49 49 48 47 46 46 47
54 56 58 58 61 61 59 58 57 58 60 61 62 62 61 60 59 58 55 53 53 50 51 48 48 48 47 48 47 47 45 44
54 56 58 60 58 58 57 57 57 56 59 60 60 60 59 57 54 52 51 50 47 48 47 47 46 44 42 40 39 39 36 36
54 56 60 59 58 57 57 57 57 57 56 57 57 56 54 53 52 50 49 47 47 46 45 43 41 40 38 37 37 36 35 34
59 60 60 58 58 58 58 58 59 56 55 54 53 51 50 49 49 48 48 46 46 44 43 42 38 37 33 31 35 34 36 33
61 60 58 58 58 58 58 58 56 54 52 50 50 48 47 47 48 47 46 44 44 43 42 39 37 36 32 31 34 36 33 35
60 59 58 59 58 56 54 52 52 49 47 47 46 46 46 47 46 45 44 42 40 39 38 37 36 36 32 31 31 30 30 31
60 59 58 58 58 57 54 52 49 46 47 46 47 46 45 45 45 43 42 40 38 39 38 36 34 35 32 32 28 28 29 29
58 58 58 58 54 52 52 50 46 44 46 46 46 45 44 42 42 41 39 38 37 37 37 36 35 34 35 30 28 27 29 30
58 58 57 53 47 47 45 43 43 45 46 47 46 45 42 41 38 37 38 38 38 38 35 37 35 34 34 33 32 32 31 30
54 50 49 47 46 46 45 45 46 46 45 43 41 42 42 40 37 37 37 38 38 38 39 38 37 34 34 33 33 34 33 32
50 47 46 46 46 46 45 46 43 41 40 38 38 36 34 34 34 37 37 37 37 38 37 38 39 38 36 35 35 34 33 33
46 45 45 46 47 47 46 42 39 37 37 37 35 34 34 35 37 36 36 35 36 37 38 38 39 38 37 37 37 36 34 33
46 44 45 46 46 43 42 38 39 38 36 35 36 35 36 36 35 35 35 35 35 35 36 37 39 38 37 36 36 36 34 32

GFSFLT2_sfc_30mbdewp_060.txt.gz
Dewpoint
65 64 63 65 66 66 65 64 64 64 64 62 61 61 60 60 60 59 59 58 57 56 56 56 55 54 56 54 52 52 49 52
64 63 66 66 66 64 63 63 62 61 60 60 59 59 59 59 59 59 59 58 57 56 56 55 54 55 56 54 52 51 51 54
62 65 65 65 65 63 62 61 60 59 60 59 58 58 59 59 58 59 59 58 57 57 57 56 56 53 55 52 50 49 52 52
64 64 64 64 63 62 61 60 59 59 58 58 58 58 59 60 59 59 59 59 59 59 59 56 53 52 51 50 49 49 48 50
63 63 63 62 61 60 59 58 57 57 57 57 58 60 60 59 60 60 60 60 58 53 51 51 49 49 48 47 47 47 47 47
62 63 61 59 59 57 56 56 58 59 61 61 61 60 59 59 59 56 54 53 51 49 48 48 46 45 43 41 43 41 39 39
60 61 56 58 58 57 59 61 62 62 62 62 61 60 60 56 55 53 51 50 48 46 45 43 42 40 39 38 38 35 34 36
56 56 56 59 59 59 60 60 60 61 61 61 60 60 57 54 52 50 48 48 46 44 42 40 38 37 35 37 36 34 35 35
54 56 60 58 57 57 57 58 59 59 60 59 57 55 53 51 49 47 47 47 44 42 40 38 37 36 34 34 34 34 33 33
56 60 58 56 56 56 55 57 57 57 57 55 54 52 49 47 46 47 49 46 43 41 39 37 36 35 33 32 31 33 32 33
57 58 57 56 56 56 55 55 55 55 54 52 51 50 48 47 46 47 46 44 43 41 39 37 35 34 32 30 30 31 31 33
58 58 57 57 56 56 56 54 54 53 50 49 49 50 49 48 47 44 43 40 41 38 36 37 36 34 32 30 32 31 31 32
58 57 56 56 55 55 54 52 53 50 50 49 48 48 48 46 45 42 40 38 38 37 37 35 34 35 31 33 32 31 31 31
57 56 56 56 55 55 55 53 52 49 49 49 46 47 46 44 42 40 38 38 37 36 36 35 35 35 32 32 29 30 31 31
56 56 56 56 55 55 53 50 49 48 47 46 46 45 44 42 40 38 37 37 36 36 36 35 33 35 35 32 30 29 31 32
57 56 56 56 56 56 51 48 46 46 46 46 46 44 42 40 39 38 38 39 37 38 38 37 37 35 35 34 34 33 31 30
57 57 57 57 57 56 51 47 46 46 47 46 46 44 43 41 39 38 39 38 37 36 37 36 37 35 34 35 34 34 34 32
58 57 57 57 56 52 49 46 46 46 46 44 41 38 38 38 37 37 36 35 35 35 35 35 36 38 37 36 35 34 33 33
57 56 52 50 48 48 46 44 43 42 40 37 35 36 37 36 35 32 32 32 31 31 31 32 33 35 37 37 37 36 36 36
53 49 47 45 42 41 39 39 39 39 38 38 38 37 34 34 31 30 29 29 30 31 32 32 34 37 37 37 36 36 37 37

GFSFLT2_sfc_30mbdewp_066.txt.gz
Dewpoint
65 65 64 63 64 67 67 66 65 65 64 63 62 62 62 61 61 60 59 59 59 60 60 58 56 56 54 54 54 55 55 56
64 64 64 64 64 65 65 64 64 64 62 61 61 61 60 60 60 60 60 60 60 59 59 59 56 56 56 56 54 53 53 54
64 64 62 63 64 64 63 63 63 61 61 60 59 59 58 59 60 60 60 60 59 57 55 54 53 53 53 51 49 48 50 51
61 61 60 63 63 62 61 61 60 59 59 58 58 58 58 59 60 61 60 58 55 53 49 47 44 43 42 41 40 40 38 42
60 61 61 61 61 60 59 58 58 58 57 57 59 59 58 59 60 58 53 51 48 46 43 41 41 39 37 37 36 36 36 37
56 57 60 62 60 58 57 57 57 57 57 59 59 60 59 57 55 52 50 48 45 43 40 39 38 36 35 34 34 34 35 36
54 55 60 60 58 57 56 56 57 57 58 60 59 58 54 53 51 49 47 44 42 39 37 36 35 34 34 33 33 32 32 35
58 60 60 59 57 56 56 59 60 60 60 60 59 56 54 51 49 47 45 42 40 37 36 35 34 32 32 33 33 32 31 33
58 60 59 58 57 57 59 60 61 60 60 60 58 55 52 49 47 44 43 41 39 37 36 35 33 32 30 31 32 32 31 30
57 58 58 58 57 58 59 60 60 59 58 57 55 52 49 47 46 45 44 42 39 37 35 34 33 32 30 31 31 32 32 31
55 58 57 57 56 57 58 58 58 57 55 54 52 49 48 48 47 45 44 41 39 37 36 34 32 32 30 32 32 31 32 31
57 57 56 56 56 56 55 55 55 54 53 51 48 47 47 47 46 44 43 41 38 36 35 36 34 33 32 32 33 31 32 32
57 56 56 55 55 54 53 52 52 51 50 49 48 48 46 46 44 41 40 38 36 35 35 34 34 35 32 33 32 32 32 32
57 56 55 55 54 53 52 52 51 49 49 49 49 48 46 43 41 40 39 37 36 36 35 35 35 35 33 32 30 31 31 33
56 56 55 55 54 54 52 51 49 48 48 47 48 48 46 43 41 39 38 37 36 36 36 35 34 35 35 32 29 27 30 32
56 56 56 55 55 54 52 50 47 47 48 47 46 46 44 42 41 39 38 38 37 38 38 36 36 34 35 35 34 33 31 30
56 56 56 56 55 55 53 51 48 47 47 46 46 44 42 40 39 39 39 38 37 36 36 36 36 34 34 34 34 34 33 32
56 56 56 56 56 55 54 51 47 46 46 45 44 42 40 39 39 38 36 36 34 32 32 32 33 35 35 35 35 34 33 32
56 56 56 56 56 56 54 51 47 46 46 44 41 40 38 37 37 38 35 33 31 30 30 30 31 31 33 34 36 36 36 35
56 56 56 56 56 55 54 51 47 46 45 41 40 38 38 39 42 40 34 30 30 31 30 31 33 34 34 34 33 33 35 36

GFSFLT2_sfc_30mbdewp_072.txt.gz
Dewpoint
65 65 66 66 66 66 66 65 64 63 64 64 63 63 62 62 61 61 61 61 61 61 61 60 59 59 59 57 55 53 49 49
64 64 64 62 64 65 65 64 64 63 63 62 61 61 61 61 60 61 62 61 60 60 60 59 58 57 55 52 51 50 49 46
62 61 60 61 60 64 63 63 62 61 60 59 55 52 52 53 60 62 61 60 58 57 57 54 52 49 45 44 45 47 46 44
60 59 58 58 58 61 60 59 54 52 53 53 51 52 51 54 59 60 58 56 54 52 49 47 47 45 43 42 43 43 40 38
59 59 58 57 57 57 60 57 57 54 53 51 54 55 56 56 56 54 52 51 46 46 46 45 45 44 43 42 40 36 35 33
59 58 57 57 56 55 57 56 56 55 56 55 56 56 57 58 56 53 51 49 48 47 46 46 44 41 39 37 35 31 30 28
55 56 57 57 59 59 57 56 56 55 58 57 58 58 59 58 56 52 50 49 48 46 44 41 39 36 34 32 32 32 32 32
56 55 55 54 54 57 56 56 56 57 58 60 61 60 59 56 54 52 49 48 46 43 39 35 33 33 33 33 32 30 31 34
57 57 58 58 57 55 54 55 55 56 59 62 60 59 58 56 53 50 47 46 43 40 37 35 32 30 31 31 30 32 30 30
57 54 58 59 56 54 53 55 58 60 61 62 60 58 57 54 51 48 46 43 40 38 35 33 32 31 32 30 30 30 31 29
50 53 58 59 58 53 54 57 60 61 62 61 60 58 55 52 50 48 46 42 41 36 36 35 34 32 29 32 32 30 31 27
51 56 59 60 59 58 58 59 61 62 61 60 59 56 54 52 50 48 44 42 40 37 37 37 36 35 31 31 35 32 31 31
54 57 60 60 57 54 55 58 60 60 60 59 57 52 53 51 48 47 44 42 39 41 40 40 38 37 36 35 34 35 34 32
55 57 59 59 54 52 56 58 59 59 58 56 54 52 52 49 47 45 44 42 41 41 40 39 38 38 36 34 29 28 32 32
53 55 56 58 56 53 56 58 57 57 56 53 51 51 49 47 47 45 45 41 40 41 41 41 39 39 38 31 22 19 20 24
52 53 55 58 58 55 55 54 54 55 54 52 49 49 48 47 46 46 44 40 41 41 42 41 40 36 35 33 32 28 18 17
55 55 57 58 59 57 56 55 55 54 53 51 49 49 48 46 46 45 43 41 42 42 42 41 38 33 27 25 26 27 27 27
56 56 57 57 58 58 57 56 55 53 52 51 49 48 48 47 45 45 44 42 42 43 41 40 35 31 27 26 24 23 23 24
56 56 55 56 57 57 57 57 56 53 52 50 48 47 47 46 45 45 42 41 41 40 40 34 32 31 30 26 28 28 28 27
55 55 55 56 57 57 57 57 56 54 53 50 48 47 46 46 45 43 42 40 41 41 36 33 33 33 32 31 29 29 28 27

GFSFLT2_sfc_30mbdewp_075.txt.gz
Dewpoint
65 66 67 67 66 66 65 64 64 64 64 64 64 63 62 62 62 62 63 63 64 62 61 61 60 59 56 53 50 51 46 45
64 64 64 65 64 65 65 64 65 65 64 62 61 61 61 60 61 62 62 62 62 61 60 59 58 55 52 49 49 51 45 42
64 62 61 61 61 64 63 63 63 62 61 59 55 55 53 56 62 62 61 61 60 59 57 55 51 48 45 44 46 44 40 40
60 59 58 59 60 60 60 58 56 55 54 52 48 51 54 55 60 60 58 57 57 56 53 51 50 46 45 44 43 41 36 35
59 59 59 59 59 59 57 55 53 54 53 51 52 55 56 57 57 54 52 52 49 49 48 48 48 47 47 42 36 33 32 30
58 59 58 57 57 54 56 59 56 55 54 56 58 56 57 56 53 53 52 50 49 49 49 49 47 43 39 37 35 32 32 29
58 57 57 56 53 51 51 56 56 56 57 57 58 57 57 56 55 53 51 51 50 49 49 46 41 37 35 33 32 32 33 32
56 57 58 57 56 56 56 57 56 57 58 58 59 59 59 58 56 53 52 51 50 49 45 39 35 36 35 33 33 31 32 33
55 55 55 54 54 52 51 54 55 55 58 61 60 60 60 57 55 54 51 50 48 44 39 37 34 33 34 33 31 32 31 31
55 55 55 54 54 51 51 52 55 57 59 61 61 61 59 58 55 52 50 49 44 40 38 36 36 35 36 33 32 31 31 30
56 56 55 56 55 54 52 54 58 59 61 61 60 59 58 55 53 51 50 46 42 39 38 39 38 36 33 35 36 32 33 27
55 57 57 56 57 55 54 55 58 60 61 60 60 58 57 54 52 52 48 44 42 39 40 39 39 39 37 36 38 37 33 32
50 52 56 58 58 54 52 52 58 61 60 60 60 57 56 54 52 51 46 43 41 43 43 43 41 41 39 39 37 38 37 34
49 52 56 57 54 51 49 51 58 60 59 59 58 56 55 54 51 49 45 43 43 43 42 41 41 41 40 37 33 32 34 35
50 53 56 58 52 48 50 54 56 58 58 57 57 55 55 53 50 48 45 44 43 44 44 43 41 41 41 38 31 27 27 27
52 53 56 57 58 50 51 55 55 56 56 56 54 54 53 51 49 47 47 44 43 44 44 44 43 40 39 36 35 34 30 28
52 53 52 54 57 57 52 52 52 55 56 55 54 52 51 50 48 47 47 44 44 43 44 44 42 39 35 31 30 28 27 27
53 52 51 53 58 58 56 54 53 55 56 53 53 53 50 49 47 47 47 45 45 45 45 44 39 37 34 31 27 25 25 26
53 53 53 54 58 59 58 57 56 56 55 54 53 51 49 49 48 48 47 45 44 46 43 41 40 37 34 31 27 27 29 29
53 54 54 54 55 58 58 58 57 56 55 54 54 52 51 50 49 48 46 44 44 43 43 40 39 37 35 32 31 29 29 28

GFSFLT2_sfc_30mbdewp_078.txt.gz
Dewpoint
68 66 66 67 66 66 65 65 65 65 65 64 64 64 64 64 65 66 66 65 64 62 61 60 59 54 50 49 51 52 51 50
64 66 66 65 65 65 65 65 65 65 64 63 62 62 63 63 63 64 64 63 62 61 60 58 55 51 49 48 49 49 47 51
63 63 63 64 64 64 65 64 63 62 61 60 57 56 59 60 62 63 63 62 60 59 57 54 51 48 46 44 47 43 42 45
61 61 62 62 62 62 63 62 60 59 57 55 54 58 59 61 61 61 61 60 58 56 53 51 49 47 46 46 41 40 40 40
59 59 59 59 60 59 59 57 55 56 55 54 56 59 59 59 57 56 56 55 52 53 53 51 52 49 44 40 39 37 39 45
58 58 56 55 55 54 54 56 56 52 55 56 58 58 57 57 56 54 54 52 51 51 53 51 47 42 40 39 37 36 36 46
57 58 56 55 54 55 57 57 55 55 56 59 58 58 57 56 56 55 53 53 53 51 51 49 42 39 38 36 36 35 36 46
57 57 57 54 54 54 56 55 55 56 58 58 58 58 59 58 57 55 53 53 52 52 51 44 42 39 37 36 35 35 34 36
55 56 56 55 55 52 53 55 55 55 57 57 58 59 59 59 56 55 53 55 53 49 43 41 38 37 37 36 37 34 35 32
55 55 55 54 53 52 51 51 54 56 57 57 56 58 60 58 57 55 55 50 48 44 41 40 39 40 38 37 35 34 33 32
55 55 55 54 53 51 49 48 54 55 56 56 56 60 60 59 58 56 52 51 48 44 42 41 40 39 38 38 38 37 34 32
54 54 54 53 52 50 51 55 55 56 57 59 59 61 61 58 56 53 52 48 46 44 42 42 43 42 40 40 40 39 37 34
53 53 54 54 56 54 54 53 57 58 57 58 60 60 59 58 55 54 53 48 45 46 46 43 42 43 42 42 43 42 38 37
55 55 56 56 57 55 53 54 58 59 59 59 60 59 59 57 55 54 52 48 47 46 46 45 45 44 42 41 38 40 40 39
54 56 56 57 57 56 52 56 57 59 59 59 59 58 58 57 56 53 50 49 47 48 46 45 45 45 43 40 36 34 34 36
51 51 56 58 58 52 50 51 55 57 58 58 58 58 56 56 54 52 49 49 47 48 47 47 45 43 44 43 39 36 34 31
50 51 55 57 58 57 51 55 55 57 58 58 56 56 55 57 55 52 50 49 49 47 48 45 45 43 39 35 35 36 36 33
52 54 55 57 58 58 56 56 56 56 57 57 56 55 55 54 53 51 51 49 49 49 48 47 43 39 38 37 34 30 29 30
54 54 53 55 58 58 58 57 55 56 57 56 54 54 54 53 52 51 50 49 49 48 47 45 41 40 39 36 35 31 31 32
53 53 53 53 58 59 58 59 57 57 57 56 54 54 53 51 52 51 50 49 48 46 45 44 41 41 37 38 35 35 34 33

GFSFLT2_sfc_30mbdewp_081.txt.gz
Dewpoint
61 67 67 67 66 66 66 65 65 66 65 66 66 66 67 68 68 67 66 64 62 60 59 56 52 50 50 49 51 54 54 56
60 63 66 65 65 65 65 65 65 65 64 64 64 65 66 67 66 66 64 62 61 60 57 54 50 48 47 46 50 52 53 54
59 61 64 65 65 65 65 64 63 63 62 62 61 62 62 64 65 64 63 62 60 57 55 51 48 47 46 45 45 45 45 49
61 63 64 64 64 64 63 61 60 59 57 56 59 60 61 62 63 63 62 60 56 56 53 52 48 47 43 41 40 40 40 45
61 62 63 63 63 62 60 59 57 56 55 57 60 60 59 59 59 59 59 56 55 55 53 50 49 44 39 38 38 43 42 47
59 59 58 57 57 57 57 56 55 54 54 58 59 58 56 55 54 54 53 51 52 51 52 47 42 40 38 36 35 42 43 49
56 56 55 53 52 51 50 50 48 54 56 59 58 57 56 56 53 53 52 51 53 52 50 45 40 38 37 36 35 38 45 45
56 56 56 55 54 53 54 55 55 57 58 58 58 58 57 57 54 54 54 53 52 51 50 42 39 37 35 35 35 34 44 45
55 55 54 55 54 56 57 56 57 57 56 56 57 59 58 58 56 54 54 53 53 52 48 43 40 38 35 36 35 34 32 40
55 55 54 54 53 54 55 55 54 54 54 56 57 59 58 58 56 53 54 53 49 44 40 39 36 37 36 36 36 34 32 32
53 53 53 53 53 53 53 52 52 53 54 57 52 54 59 58 56 56 52 48 45 42 42 39 40 40 38 38 36 35 33 33
53 52 52 53 52 50 49 49 52 55 54 56 52 54 57 59 58 55 52 49 46 43 42 44 41 41 41 38 39 38 36 34
53 53 53 52 50 48 46 47 54 54 55 56 56 56 57 58 57 54 51 48 44 44 43 41 42 43 41 42 44 42 38 36
53 53 53 51 50 48 49 51 55 56 57 57 56 57 58 59 54 53 52 48 46 45 43 43 44 43 42 41 38 39 40 38
52 52 52 52 52 52 54 54 56 57 57 57 59 59 60 59 55 53 52 50 45 45 45 44 43 44 42 40 36 34 34 36
50 51 51 52 55 55 55 52 54 56 57 58 59 59 58 58 56 54 52 49 45 46 47 46 45 43 43 42 39 36 33 31
51 54 55 55 56 56 56 52 55 57 58 57 58 58 57 57 56 54 51 48 47 47 47 47 45 42 40 38 36 38 36 32
53 53 55 56 57 57 57 52 55 56 57 57 57 56 56 56 56 54 50 49 48 47 47 45 44 42 39 38 34 31 30 29
51 50 51 56 57 57 57 54 54 56 57 57 55 55 55 55 55 54 51 50 50 49 47 44 41 39 39 37 37 32 32 32
49 49 50 54 57 57 58 57 56 56 57 57 56 55 55 54 54 53 51 50 48 47 46 44 42 41 39 38 36 36 36 34

GFSFLT2_sfc_30mbdewp_084.txt.gz
Dewpoint
61 59 64 65 68 66 65 65 66 66 66 67 67 67 68 67 67 65 64 61 59 57 55 53 53 53 57 57 57 57 57 57
59 59 60 64 66 65 65 66 66 67 67 66 67 67 67 67 66 64 62 61 59 55 52 51 50 52 56 56 56 56 56 57
59 61 61 63 65 65 65 65 65 65 65 65 66 66 66 65 64 63 62 60 58 54 52 52 48 51 52 51 50 50 52 55
62 63 64 64 64 64 64 63 62 62 62 61 62 64 65 64 64 63 61 58 56 55 53 49 45 40 43 44 41 42 46 50
62 62 63 63 63 62 60 59 58 57 59 60 61 62 63 63 62 60 59 57 55 53 50 50 43 38 39 40 42 41 43 47
61 62 62 62 62 60 58 57 56 57 59 59 59 59 59 59 58 56 54 54 52 51 49 43 40 38 37 40 41 42 46 50
58 59 59 59 59 58 56 55 54 58 58 58 56 56 55 55 55 53 51 52 51 52 45 40 39 37 36 36 41 43 44 47
56 55 54 54 53 53 51 52 56 58 59 58 57 56 56 54 53 51 51 52 52 50 44 39 37 35 35 36 39 44 42 44
54 54 54 53 53 51 50 56 58 57 59 59 57 57 56 54 53 53 52 53 52 51 44 41 38 36 35 35 35 41 43 44
54 54 54 54 55 55 56 57 57 57 57 58 58 58 58 56 55 53 54 53 52 50 44 41 39 37 36 36 35 34 36 44
54 54 53 54 54 55 54 54 54 55 55 55 56 58 59 57 55 54 54 52 50 45 41 39 38 38 37 36 36 34 32 40
54 54 54 54 54 54 53 52 52 53 54 55 55 55 59 57 56 55 52 49 46 42 40 42 40 40 38 37 38 37 34 34
53 53 54 53 52 51 51 50 50 52 54 53 56 54 57 58 57 55 51 47 45 42 42 41 42 43 41 42 42 43 38 35
52 52 52 50 50 49 48 47 51 53 55 55 56 56 56 58 57 55 52 49 45 44 42 42 42 43 40 40 38 39 40 38
52 51 51 50 49 48 49 49 53 53 54 55 55 56 57 58 56 55 52 49 46 45 43 42 42 43 42 39 37 35 35 35
52 52 51 50 50 48 48 46 48 54 54 55 56 57 57 58 57 55 53 50 46 45 45 44 44 42 43 42 39 37 33 32
52 52 52 50 51 50 49 52 54 54 55 56 56 57 58 59 58 55 53 51 47 46 46 45 45 44 42 42 39 38 35 32
52 51 51 51 52 52 52 52 54 55 56 56 56 57 58 57 57 55 53 51 49 47 47 46 45 44 41 39 36 34 34 34
51 50 50 50 51 52 54 55 54 54 55 56 56 56 56 56 56 55 53 51 49 48 48 46 45 41 40 39 36 33 32 32
49 49 50 52 54 54 55 56 55 55 55 56 56 56 56 56 56 55 53 51 50 49 47 45 45 45 45 43 41 38 36 34

GFSFLT2_sfc_30mbdewp_087.txt.gz
Dewpoint
61 60 65 65 65 65 65 65 66 66 67 67 67 67 66 65 64 63 62 61 59 57 56 59 60 60 59 59 58 57 56 55
60 59 62 64 64 64 65 64 66 66 67 67 67 67 66 65 64 62 61 59 57 56 55 58 60 59 59 58 58 58 56 56
60 59 59 63 64 64 64 64 66 67 67 66 66 66 66 64 62 61 59 58 58 56 54 58 58 58 57 56 55 55 56 57
60 62 61 59 63 64 63 62 64 65 65 65 65 65 64 62 62 61 59 57 57 54 50 49 48 50 51 49 49 51 54 56
62 61 62 60 58 61 61 63 63 63 64 64 63 64 64 62 61 58 58 56 53 50 46 40 41 42 40 40 40 43 47 51
60 60 61 61 61 61 61 61 60 61 62 62 63 63 62 61 58 57 55 53 50 49 45 39 38 39 41 40 40 43 47 50
59 60 60 60 60 59 59 58 59 60 61 62 62 61 60 59 56 53 53 51 51 45 41 39 37 38 40 40 41 43 46 50
57 57 60 60 59 58 57 56 58 59 59 59 59 59 58 56 53 51 51 51 51 44 40 38 37 36 37 41 42 41 44 48
56 55 56 57 57 56 55 56 59 58 58 57 57 57 57 55 52 51 51 52 50 44 40 38 36 36 36 39 43 42 42 45
55 55 54 54 52 54 56 57 58 58 58 57 56 56 54 54 52 51 52 52 50 44 41 39 37 36 35 35 38 41 42 44
54 54 55 54 54 56 56 56 57 58 58 57 57 57 55 54 53 53 53 52 51 46 42 39 37 36 35 36 36 34 38 43
54 54 54 54 54 54 54 54 55 55 56 57 57 58 57 55 54 53 53 52 49 45 41 40 38 37 36 36 37 35 34 40
54 53 54 53 53 52 52 53 53 53 54 56 55 57 58 56 55 54 52 51 49 44 41 40 40 41 39 40 40 40 37 36
53 53 53 52 51 48 49 51 52 52 54 54 56 54 57 57 56 54 52 50 47 43 41 41 41 42 39 40 38 40 41 39
52 53 52 52 51 49 48 50 51 51 52 54 54 55 55 58 58 56 54 50 47 44 43 41 40 43 42 39 37 36 37 37
52 52 52 50 49 48 48 46 46 48 49 54 53 55 55 56 57 57 54 51 48 45 44 43 42 40 43 42 39 37 34 33
52 51 51 50 50 48 47 46 46 49 53 53 54 55 56 57 58 56 54 52 49 47 45 44 44 42 42 42 40 37 35 32
52 51 51 50 50 49 48 48 49 50 52 53 54 55 56 57 58 56 55 53 50 48 48 47 45 44 43 41 39 38 36 34
52 51 51 50 50 49 49 49 50 51 51 53 54 54 55 55 56 56 55 54 52 51 49 47 47 44 42 40 39 39 37 38
51 51 50 50 50 49 49 50 50 52 53 54 55 55 54 55 56 57 56 53 52 50 49 47 46 44 43 44 42 42 42 40

GFSFLT2_sfc_30mbdewp_093.txt.gz
Dewpoint
63 64 63 62 64 65 67 67 67 67 66 65 65 65 65 65 65 64 62 63 63 64 61 61 60 59 58 58 57 54 51 52
62 64 63 64 64 62 66 67 67 67 66 66 65 65 65 64 64 62 63 65 64 63 61 60 60 59 58 58 57 55 51 51
62 62 63 63 63 63 66 66 67 67 66 65 64 64 63 62 60 61 63 64 63 61 61 60 60 59 59 58 55 52 52 51
61 61 61 62 64 64 65 65 66 66 66 65 64 64 63 60 59 60 61 63 62 61 61 60 57 55 56 56 52 54 52 51
60 61 61 61 62 64 63 62 63 65 65 64 64 63 61 59 57 56 59 61 59 59 58 54 55 54 53 54 55 53 53 52
60 61 61 62 61 63 62 61 62 64 63 64 63 61 60 58 55 53 54 57 58 57 54 53 52 52 53 54 54 53 53 52
60 60 61 61 61 61 62 60 61 63 63 62 62 60 58 56 55 51 50 52 53 52 52 49 48 48 48 50 53 54 54 53
59 60 60 60 60 60 62 60 59 61 63 61 62 60 57 55 54 51 50 49 50 49 48 45 42 40 41 41 43 50 54 54
58 59 59 59 60 61 60 59 59 61 62 63 62 60 57 55 53 51 49 46 46 45 44 42 41 40 41 42 43 46 50 55
57 58 58 58 59 59 59 59 59 61 62 62 62 59 56 55 53 51 51 47 44 42 41 41 41 40 41 41 41 43 50 54
56 57 56 57 58 59 59 59 60 61 61 60 60 59 56 54 53 52 52 48 45 42 41 40 39 39 41 42 43 42 45 52
56 56 56 56 57 58 59 59 59 59 60 59 59 58 56 54 53 53 52 48 45 43 42 41 39 38 35 39 41 41 43 44
55 55 56 56 55 56 56 56 57 58 58 58 58 58 56 55 53 54 53 50 46 45 44 42 40 41 38 38 39 39 39 41
55 54 55 55 55 56 56 56 57 57 57 58 57 57 56 55 53 53 53 52 49 46 44 44 43 42 37 37 35 38 39 39
54 54 54 55 55 55 55 54 54 55 56 56 56 56 55 55 54 54 54 53 51 49 47 44 42 42 44 40 39 36 39 42
54 54 54 54 53 53 54 53 53 53 53 54 55 56 57 56 55 54 54 54 53 52 50 48 46 41 42 44 43 42 38 38
53 54 53 53 52 53 52 51 52 50 53 54 54 54 55 56 57 56 55 54 54 54 51 49 49 47 43 44 43 40 40 38
53 53 53 52 52 52 51 51 51 48 50 51 53 53 54 55 55 56 57 56 55 54 53 52 51 50 47 47 43 41 39 39
52 53 52 51 51 50 50 51 50 49 48 49 51 51 52 53 55 56 56 57 56 56 55 53 52 51 49 47 46 46 45 42
51 51 51 51 51 50 50 49 49 50 49 48 50 50 51 52 54 54 55 56 56 56 55 54 54 52 50 48 49 47 46 44

GFSFLT2_sfc_30mbdewp_096.txt.gz
Dewpoint
60 60 63 63 65 69 68 68 68 67 66 66 66 66 65 65 65 65 65 64 64 62 61 61 60 59 58 56 54 52 48 48
62 61 61 61 65 63 63 64 66 67 65 66 65 65 65 65 65 64 64 65 63 61 61 60 59 58 58 56 54 51 48 48
63 59 59 60 63 62 59 64 65 66 65 65 65 64 64 64 62 64 64 64 62 61 61 60 59 59 58 55 53 47 48 48
62 61 60 61 62 61 60 62 65 66 65 64 60 63 62 60 62 64 65 64 62 61 61 60 55 51 53 55 48 49 48 49
61 62 63 63 63 62 64 63 63 65 65 62 62 62 61 60 59 60 62 62 59 57 57 52 51 49 49 48 50 49 48 48
61 61 61 63 63 63 63 62 64 64 64 62 63 62 61 58 54 56 58 57 57 55 53 52 52 50 49 50 50 48 48 48
60 61 61 62 62 63 63 64 63 64 63 62 62 61 59 56 54 55 55 55 56 55 54 53 52 50 49 50 49 48 50 48
59 60 61 61 61 61 62 62 63 64 64 63 61 61 58 55 53 53 54 55 55 54 53 49 47 47 48 48 48 48 49 49
58 59 60 60 60 61 62 62 61 62 63 62 61 59 57 55 54 51 51 52 53 52 50 46 42 41 40 42 44 47 48 50
59 59 59 60 59 60 61 61 61 61 63 63 60 58 56 55 52 50 49 50 51 49 46 43 42 40 39 40 40 42 47 50
58 59 58 58 59 60 60 61 60 60 62 62 61 58 56 53 52 50 50 48 47 46 44 44 43 41 39 40 40 40 45 47
57 58 58 58 59 59 60 60 61 61 61 61 61 58 56 54 53 53 50 47 47 46 45 45 44 42 38 39 41 40 41 46
56 56 57 58 57 57 57 57 59 60 60 60 60 58 55 55 52 53 50 48 47 48 47 46 44 43 38 39 40 42 42 41
56 56 56 56 57 57 57 58 58 59 59 59 59 58 55 54 52 53 51 49 49 49 47 46 46 44 40 38 36 37 38 40
55 55 56 56 57 56 56 57 57 57 58 58 58 58 56 54 51 52 52 51 50 50 48 48 46 44 43 40 39 39 39 39
55 54 56 56 56 55 55 54 52 55 57 56 58 58 57 56 54 52 53 53 52 52 50 49 47 45 44 44 46 45 41 41
54 54 55 55 55 55 54 53 53 56 55 55 56 57 57 56 56 55 54 53 54 53 52 51 49 48 46 45 43 43 43 42
54 54 54 54 54 53 53 52 52 54 54 54 55 56 55 55 55 55 55 54 53 54 54 54 53 51 50 50 48 47 45 44
54 53 53 54 54 53 53 53 52 52 53 53 51 51 53 54 55 56 55 54 53 54 55 55 55 54 53 52 51 50 49 46
53 53 53 53 52 52 51 51 52 52 51 50 52 49 49 51 52 52 54 53 54 54 55 55 55 55 55 55 54 54 51 48

GFSFLT2_sfc_30mbdewp_102.txt.gz
Dewpoint
64 65 63 64 65 65 64 64 64 66 67 65 64 65 66 65 65 64 63 62 62 62 61 60 59 56 55 54 52 52 50 51
63 63 61 61 62 61 60 59 58 59 66 65 65 65 65 65 64 64 63 62 62 61 61 59 58 56 54 50 52 52 49 50
63 62 61 62 62 62 61 58 60 57 66 65 66 64 64 64 63 63 63 62 62 61 60 58 56 54 52 54 54 50 50 52
63 63 62 61 62 61 61 60 59 58 64 65 64 64 64 63 64 63 62 62 61 60 59 56 52 52 52 52 51 51 51 53
61 62 61 61 63 61 62 60 60 60 64 64 64 63 63 64 64 62 61 60 59 59 56 51 48 48 50 51 52 51 51 53
61 61 61 60 62 60 62 62 61 62 64 64 63 62 63 64 63 60 58 56 56 55 52 51 48 48 50 53 49 51 53 54
61 61 62 62 61 61 63 62 60 60 63 64 62 61 63 63 62 61 55 55 55 53 52 54 52 49 51 50 50 52 53 53
60 61 62 63 62 61 61 62 59 62 64 63 62 61 63 62 61 60 57 56 55 53 52 54 54 51 51 51 50 50 52 53
58 60 61 61 61 62 62 63 61 63 63 62 62 62 62 60 59 60 58 56 56 54 54 54 52 50 50 51 50 50 52 52
58 59 59 60 61 62 63 63 63 62 61 63 62 62 61 58 58 57 57 57 57 55 55 53 51 49 49 49 49 49 51 52
58 59 59 60 60 61 63 62 62 63 61 62 62 61 60 58 57 58 58 56 56 56 54 51 48 47 46 46 47 48 50 49
58 58 59 59 60 60 61 62 62 63 61 61 61 61 59 57 56 57 58 57 56 55 52 50 47 46 40 43 45 45 47 50
57 58 58 58 58 58 59 58 60 62 62 60 60 60 58 56 54 54 54 56 55 54 52 48 47 49 45 45 45 45 47 48
56 58 58 58 58 58 58 58 59 60 62 60 60 59 58 54 54 54 53 53 54 52 50 49 50 49 46 44 43 43 44 45
56 56 58 58 58 58 58 59 59 59 60 60 59 58 57 55 54 55 53 52 53 51 52 50 50 49 47 46 43 41 43 45
55 56 57 57 57 57 57 57 56 58 59 59 59 58 57 57 57 56 55 54 53 53 53 52 50 47 48 48 48 49 46 42
55 56 57 56 57 57 57 56 57 58 58 57 57 57 56 56 57 56 55 54 54 54 54 52 53 50 48 47 47 48 49 47
55 55 55 57 57 57 56 56 56 56 56 56 56 56 56 56 55 56 56 55 55 55 54 53 54 53 50 49 48 47 46 47
55 54 54 56 56 57 56 56 56 56 56 56 55 55 55 55 55 57 57 56 55 54 56 55 55 54 53 53 52 50 50 49
54 54 53 55 56 56 56 55 56 56 56 56 55 55 54 55 55 56 56 54 54 56 56 56 56 56 54 53 53 53 54 53

GFSFLT2_sfc_30mbdewp_105.txt.gz
Dewpoint
66 65 64 67 69 68 69 68 67 65 65 65 65 64 65 65 65 64 64 63 63 63 62 60 59 56 55 53 55 54 54 55
64 63 63 62 63 64 65 67 66 64 66 65 65 64 65 65 65 64 63 63 63 62 61 59 56 55 53 55 55 54 54 55
62 62 60 61 61 62 62 63 65 65 62 62 63 64 65 64 64 63 63 63 62 61 60 57 55 53 54 54 51 52 54 55
62 62 61 62 62 62 62 61 61 61 62 60 63 64 64 63 64 63 63 62 61 60 58 55 54 52 51 51 51 53 54 54
62 62 62 61 62 60 61 61 61 59 59 59 63 64 63 63 63 62 62 61 59 57 55 53 51 51 49 50 52 53 54 54
61 62 60 60 61 60 60 59 59 59 59 61 61 63 63 62 61 61 60 58 57 54 51 50 49 49 50 52 52 53 54 55
61 62 61 59 62 60 62 61 61 61 59 63 63 63 63 61 60 58 57 57 55 51 51 48 48 48 50 52 52 53 54 55
60 61 61 61 61 60 62 61 60 62 60 63 63 62 62 61 58 56 55 55 53 50 52 50 49 49 50 51 52 53 53 54
59 60 61 62 62 61 62 60 61 62 63 64 63 63 62 61 57 54 55 54 52 52 52 53 51 51 50 51 52 53 53 54
59 60 60 61 61 62 63 60 60 62 63 63 63 63 62 61 59 55 57 54 52 53 53 54 51 50 50 50 51 52 53 53
58 59 59 60 60 62 63 62 61 62 62 63 63 62 61 60 60 57 58 55 55 55 55 53 49 49 49 49 49 52 53 53
58 58 59 60 59 60 61 62 62 61 61 62 63 62 60 59 59 58 59 55 57 57 54 51 49 48 47 47 48 49 51 52
58 58 59 59 58 57 57 60 61 61 60 61 61 61 60 59 59 59 59 57 58 56 52 49 47 45 44 44 45 46 48 49
56 58 58 58 57 58 58 58 59 62 61 61 61 60 59 58 57 57 58 58 57 54 50 49 47 49 43 44 42 43 45 46
55 57 57 58 58 58 57 58 59 58 61 60 60 59 59 56 56 55 57 57 55 52 50 49 47 50 45 44 43 41 43 44
55 57 57 58 58 57 57 56 55 58 57 59 59 59 59 56 56 54 55 57 55 53 51 50 49 48 48 49 48 48 42 41
55 56 57 57 57 57 57 57 57 58 58 59 59 59 58 56 56 55 54 55 54 53 53 52 50 49 47 47 47 48 49 46
55 56 57 56 56 57 57 56 57 57 58 57 58 58 57 55 56 56 55 55 54 54 54 54 54 52 49 48 46 45 46 47
55 56 56 56 56 57 56 57 56 56 57 57 56 56 56 56 56 56 56 57 56 55 54 53 54 54 51 49 49 48 48 47
55 54 54 56 56 56 56 56 56 56 56 56 56 55 56 56 55 56 57 57 57 56 55 55 55 54 53 53 53 51 51 51

GFSFLT2_sfc_30mbdewp_108.txt.gz
Dewpoint
67 67 68 69 70 70 69 68 66 66 65 64 65 64 64 65 65 65 64 64 64 64 63 61 60 56 58 58 58 57 56 56
65 64 64 65 67 67 68 69 66 64 65 63 63 62 62 65 65 65 64 64 64 63 61 60 57 56 58 57 57 56 55 55
64 63 62 61 62 63 64 65 66 64 64 63 63 60 63 65 64 64 64 64 63 62 61 59 57 57 58 57 55 55 55 55
62 62 60 60 61 61 61 62 64 65 63 63 63 62 64 64 64 64 63 63 63 62 60 57 55 54 55 54 54 54 54 55
61 61 61 61 61 60 61 61 62 63 63 63 63 63 63 63 63 63 63 62 61 60 58 54 51 51 51 52 54 54 54 55
62 62 61 60 60 59 60 60 61 61 62 62 63 62 63 64 62 62 61 60 58 55 53 51 50 50 52 52 53 53 54 55
61 61 60 60 60 59 59 59 60 60 60 60 61 62 62 62 61 60 59 57 55 53 50 49 49 50 53 52 53 54 55 55
61 61 60 59 61 59 60 61 60 60 60 60 59 62 62 61 60 58 57 56 53 50 49 48 48 49 52 53 53 54 54 55
60 61 61 60 61 60 61 61 60 60 60 60 59 62 62 60 58 56 55 53 50 49 51 48 48 50 51 53 53 53 54 54
59 61 61 61 61 61 61 60 61 61 60 61 61 60 62 59 56 54 54 53 49 50 52 50 49 50 51 52 53 53 54 54
58 60 60 60 62 62 61 60 61 62 61 62 62 62 62 58 55 53 54 52 48 52 53 52 50 50 50 51 52 53 53 53
58 59 60 59 60 62 62 60 61 62 62 62 63 62 61 59 55 54 53 53 49 53 53 53 51 50 49 49 51 53 53 53
58 58 59 58 58 59 60 59 60 61 62 62 62 62 61 60 56 56 54 53 50 54 54 51 49 49 47 46 47 51 52 52
57 57 59 58 57 57 58 60 60 60 61 62 62 62 61 60 58 56 55 53 54 55 53 50 48 47 46 44 42 43 48 49
57 58 58 58 57 57 57 58 59 60 60 60 61 61 60 60 59 57 57 56 56 54 52 50 47 47 45 43 42 40 42 44
56 58 57 57 58 57 56 55 56 57 60 59 61 60 60 59 59 58 58 57 56 55 52 50 47 45 47 47 46 44 42 41
56 57 57 58 58 57 56 55 56 56 57 59 59 60 59 58 57 58 58 58 56 54 52 51 49 49 46 48 47 48 48 43
56 57 57 57 57 57 57 56 57 56 57 57 58 59 59 57 57 57 58 57 55 55 55 54 53 51 49 48 47 46 46 47
55 56 56 56 56 57 57 57 57 57 57 58 57 58 58 57 57 57 57 58 58 57 56 55 55 54 52 51 49 47 47 47
55 56 56 56 56 57 57 56 56 56 58 58 57 57 57 57 57 57 57 57 57 57 56 56 55 55 54 53 52 50 49 48

GFSFLT2_sfc_30mbdewp_114.txt.gz
Dewpoint
68 68 69 69 69 70 69 69 69 68 67 66 65 64 64 62 63 64 64 64 64 65 65 63 64 62 61 59 58 57 56 57
67 67 68 69 69 68 69 69 68 67 66 66 65 62 62 64 63 64 63 64 64 65 63 62 63 61 60 58 58 56 56 56
66 66 66 67 67 67 69 68 68 66 65 64 63 61 62 64 63 63 63 64 64 64 62 60 62 61 59 58 56 55 56 56
64 65 66 66 66 66 68 68 67 65 64 64 63 63 62 62 63 63 63 64 64 63 60 58 61 60 59 57 55 56 56 56
63 63 64 64 65 65 65 65 66 65 63 63 63 63 63 62 62 63 63 64 63 61 58 59 58 58 55 55 55 55 56 56
62 62 62 62 62 62 63 62 64 65 64 63 62 61 61 62 63 63 63 62 62 59 55 55 57 55 54 54 55 55 55 56
61 62 61 60 60 59 60 60 62 64 64 63 62 61 60 62 62 63 61 61 60 57 53 53 53 53 54 54 54 55 55 56
60 61 61 60 59 59 60 60 60 61 63 63 62 61 61 62 62 62 61 60 59 55 52 51 52 53 53 53 54 54 55 56
59 60 60 59 59 59 59 58 59 60 61 63 62 61 61 61 61 61 59 58 57 53 50 51 52 52 53 53 54 54 55 55
60 61 60 59 59 58 58 59 58 59 60 62 62 62 61 61 61 60 58 56 55 53 50 50 51 52 52 53 53 54 55 55
59 61 60 59 59 58 59 59 59 58 59 60 61 62 62 61 61 59 56 54 54 52 49 49 51 52 52 52 53 53 54 54
59 60 60 59 59 59 60 58 59 60 61 60 60 61 61 61 60 57 55 52 51 52 49 50 51 52 52 52 52 53 53 54
59 59 59 59 59 59 59 58 59 60 60 61 60 60 60 60 57 56 54 51 50 50 49 49 50 52 51 50 50 52 52 53
59 59 58 59 59 59 58 58 59 60 60 60 60 61 59 58 57 55 52 49 49 49 49 49 50 51 49 48 48 49 51 52
58 58 58 59 58 58 59 59 60 59 60 59 60 60 59 57 56 55 52 48 47 48 49 48 48 49 50 47 45 46 48 49
57 58 58 57 58 58 58 57 57 59 59 60 60 61 59 57 55 54 51 47 47 48 50 49 49 48 48 46 45 45 45 44
57 57 57 57 57 58 57 57 57 58 60 60 60 60 60 58 56 55 52 50 47 48 51 50 50 49 47 46 46 46 45 42
56 56 57 57 57 56 57 56 57 58 58 58 59 60 60 60 57 56 53 52 50 50 53 53 51 50 48 46 45 44 45 44
56 56 56 56 56 56 55 55 56 57 58 58 59 59 59 60 59 57 56 53 54 51 54 53 51 50 49 47 47 47 48 48
55 55 56 56 56 56 55 55 55 55 56 57 58 59 59 60 60 58 57 54 56 54 54 53 52 51 50 50 50 50 50 49

GFSFLT2_sfc_30mbdewp_117.txt.gz
Dewpoint
68 69 69 69 69 69 69 69 69 69 68 66 67 65 65 65 64 63 63 64 64 65 66 65 64 63 61 60 59 59 58 57
67 68 67 69 68 69 69 69 68 68 67 66 66 65 65 65 64 64 64 63 63 65 65 65 63 62 60 59 59 58 56 56
67 66 66 67 68 68 69 68 68 67 66 65 64 63 64 63 61 63 64 64 65 64 64 64 62 61 59 58 57 56 56 56
66 66 66 66 67 67 68 68 68 67 66 65 65 63 62 61 62 64 65 64 64 63 62 63 61 58 58 57 55 56 55 56
65 65 65 66 66 66 68 68 68 67 66 66 64 62 62 63 63 64 65 64 63 62 61 61 59 58 57 56 56 56 55 55
63 65 65 65 65 66 66 67 67 66 65 65 64 63 63 62 63 64 63 62 62 61 59 59 60 59 57 56 56 55 55 54
62 64 65 65 64 64 65 65 66 66 65 63 64 63 62 62 62 63 63 62 61 60 58 58 58 57 56 56 56 56 56 55
60 63 64 64 64 64 63 63 64 65 64 63 63 63 62 62 62 63 63 62 60 58 56 57 56 56 56 56 55 55 54 56
58 61 63 63 63 62 62 62 62 63 64 64 63 62 61 61 61 62 62 61 59 57 55 55 55 55 55 55 55 55 55 55
56 59 62 62 62 61 60 60 61 61 62 62 63 62 61 61 61 61 61 60 58 55 54 53 54 54 54 53 52 53 55 55
54 59 61 62 62 61 60 60 60 59 60 61 62 62 62 61 61 61 59 58 56 55 53 53 53 53 53 53 52 53 54 54
54 59 60 61 61 60 60 60 59 58 59 60 61 62 62 61 61 60 58 57 56 54 53 52 52 52 51 52 53 53 54 54
57 59 60 60 60 59 58 57 57 58 60 60 60 61 61 62 61 59 58 56 55 55 53 52 52 53 52 52 52 53 54 54
58 59 59 60 60 59 59 58 59 58 60 60 61 61 60 61 61 58 57 56 55 53 52 51 52 53 50 50 49 51 52 53
58 59 59 60 60 60 59 59 59 59 60 60 60 60 60 60 59 58 56 54 53 53 52 51 50 52 52 49 48 47 50 52
58 59 59 59 59 58 58 57 56 58 60 59 60 59 58 58 58 57 54 53 52 53 52 51 51 51 52 49 50 49 47 47
58 59 58 58 59 58 58 57 57 59 60 59 59 59 58 57 57 56 53 52 51 51 52 51 51 51 51 48 48 48 49 47
58 58 57 57 58 58 57 57 57 58 59 59 58 59 58 58 57 55 54 51 50 50 51 52 52 52 51 49 47 45 45 45
56 57 56 57 57 57 57 57 58 57 58 59 58 58 59 58 57 56 54 53 51 50 51 52 52 52 52 50 49 47 48 48
55 55 55 56 57 57 58 58 58 58 59 59 58 59 59 59 58 57 56 54 51 51 52 52 52 53 52 51 50 50 50 50

GFSFLT2_sfc_30mbdewp_120.txt.gz
Dewpoint
66 67 68 68 69 70 69 68 68 69 70 69 68 66 66 65 65 66 65 65 66 66 66 65 65 64 62 62 61 60 53 51
66 68 68 68 67 69 69 68 67 68 69 68 66 66 65 66 66 65 64 65 65 66 66 65 64 62 61 60 59 58 52 52
66 67 68 68 67 68 69 69 68 68 68 66 66 64 64 63 62 63 65 65 65 66 65 64 62 61 60 59 58 52 52 51
66 67 67 68 68 68 68 68 67 67 67 66 63 62 63 61 61 64 65 64 66 65 64 63 61 60 59 58 54 53 51 50
64 66 67 67 67 67 68 68 67 65 65 66 64 62 63 61 59 63 63 64 64 64 63 61 59 55 55 55 54 54 51 50
62 65 66 66 66 67 67 68 68 67 65 65 64 63 61 60 59 59 61 63 63 63 62 59 55 53 55 55 55 52 51 50
59 64 66 66 66 67 67 67 67 67 67 66 65 63 61 61 62 61 63 63 62 60 59 56 56 58 56 56 55 53 51 49
55 60 64 66 66 66 66 66 66 67 67 66 66 64 63 62 61 63 62 62 61 59 57 55 56 57 57 56 55 52 51 51
47 53 61 64 65 65 65 65 65 66 66 66 66 65 63 62 62 62 63 63 61 60 58 55 55 56 56 56 54 51 50 52
36 45 54 61 63 65 65 64 64 65 64 65 65 65 64 63 62 62 62 63 61 59 56 55 55 56 55 54 52 51 52 51
35 41 51 58 62 63 64 63 63 63 64 64 65 64 63 62 62 62 63 61 60 58 57 55 55 54 54 53 51 51 53 50
38 40 48 57 61 63 63 62 61 62 63 62 62 63 63 62 62 61 62 60 59 58 56 54 54 53 52 52 52 52 52 52
48 49 53 58 61 62 61 60 59 60 61 61 61 62 63 62 62 61 60 59 58 58 56 54 52 53 53 52 52 53 53 52
52 53 56 58 60 61 60 60 60 60 60 60 60 60 62 62 61 61 60 59 58 57 55 53 51 53 51 51 50 52 52 53
53 53 57 58 58 60 60 60 60 59 59 60 60 60 60 61 61 61 59 58 57 56 55 54 52 53 52 48 47 47 50 52
54 55 57 59 59 59 59 59 58 58 59 61 61 61 61 61 60 60 59 58 57 56 55 54 53 52 51 48 47 45 47 49
56 56 58 58 60 60 59 58 57 58 59 60 60 60 60 60 60 59 59 58 57 56 55 55 54 53 52 50 49 50 48 45
57 57 58 59 60 60 59 58 57 58 60 59 59 59 58 59 58 57 57 57 56 56 55 55 54 54 52 51 50 48 47 46
53 56 56 58 59 59 59 58 57 57 59 58 58 58 57 57 57 56 55 55 56 56 55 54 54 54 53 52 49 48 45 45
50 53 55 57 58 58 59 58 57 58 58 58 58 59 59 58 57 55 55 54 55 54 54 54 55 55 54 53 50 48 47 46

GFSFLT2_sfc_30mbdewp_123.txt.gz
Dewpoint
65 67 67 69 69 70 68 68 69 70 70 70 69 67 64 65 65 65 65 66 66 67 67 66 65 64 63 62 61 60 58 54
65 66 67 67 68 69 68 68 68 68 70 69 68 66 64 66 66 65 66 67 66 66 66 65 64 63 62 61 60 58 55 49
65 67 67 67 67 68 69 68 68 68 69 68 66 65 64 65 64 65 67 66 66 66 65 64 63 62 61 60 58 50 50 48
65 66 67 67 66 67 67 67 67 67 67 68 67 65 64 62 62 64 66 66 66 66 65 63 62 61 60 59 56 50 48 50
62 65 67 66 67 67 66 65 65 65 65 65 67 64 64 62 62 62 64 65 64 64 64 63 61 60 59 57 53 51 48 53
59 63 66 66 65 67 67 65 65 65 64 66 66 65 64 62 63 62 60 62 63 63 64 62 60 57 54 52 55 49 48 53
55 62 65 65 66 66 67 65 65 64 64 66 66 64 63 63 62 61 59 61 62 62 63 61 58 52 52 56 54 50 49 50
52 58 63 65 66 66 66 66 64 65 64 65 67 65 64 62 62 62 60 62 64 63 62 60 56 54 55 56 52 50 49 50
44 52 58 63 65 66 66 66 65 64 65 66 66 66 65 62 62 63 62 64 62 63 61 59 56 56 57 57 52 50 48 49
31 33 49 58 63 65 66 66 66 65 66 66 66 67 65 64 63 63 63 62 62 62 60 59 56 54 56 55 50 49 48 50
30 33 40 52 59 62 65 65 66 65 65 65 66 66 66 65 63 62 62 62 62 61 61 58 53 52 56 55 51 48 49 48
39 39 41 46 55 61 62 65 65 65 65 63 65 66 66 65 64 63 63 62 61 61 59 58 53 53 54 53 51 53 51 49
43 44 47 45 49 56 60 63 64 63 64 64 65 65 65 64 64 63 62 61 59 60 59 57 53 54 54 52 52 54 53 51
49 49 49 50 50 55 59 63 61 61 62 63 62 63 64 63 63 62 62 61 59 59 58 56 54 55 53 51 50 52 53 51
52 50 51 53 54 57 61 61 60 60 60 60 61 61 62 62 62 62 61 60 59 59 58 57 53 53 53 51 49 48 51 52
54 53 53 55 57 59 61 59 59 59 59 60 60 60 60 60 61 62 61 60 59 59 59 57 55 52 53 52 50 48 49 50
54 56 55 57 58 58 59 60 59 60 60 60 60 60 60 61 62 62 60 60 59 59 59 57 55 54 53 52 50 49 50 48
49 54 55 58 59 60 60 60 59 59 58 59 59 61 61 61 61 61 60 59 59 58 59 57 56 55 53 52 50 48 49 48
50 49 54 57 59 60 61 61 60 58 58 58 60 59 59 59 59 59 59 59 58 58 58 57 55 54 53 52 51 49 49 48
51 50 50 55 57 58 60 61 60 58 58 58 59 59 59 59 58 57 57 57 58 58 58 57 56 56 54 53 52 51 49 48

GFSFLT2_sfc_30mbdewp_126.txt.gz
Dewpoint
68 68 68 69 69 69 69 70 68 69 70 70 70 69 66 63 64 63 61 64 66 66 66 66 66 65 64 62 61 61 60 60
69 68 68 69 69 69 68 68 67 67 69 70 69 67 65 62 65 66 65 66 66 67 66 66 65 64 63 62 61 60 57 60
69 68 68 69 69 69 68 68 68 67 68 69 68 67 65 65 65 64 65 65 67 66 66 65 64 63 62 61 59 58 56 60
69 68 68 69 67 69 69 68 68 68 68 69 69 68 66 63 64 63 66 66 67 66 65 64 63 63 62 60 59 57 57 59
67 69 69 69 66 69 68 68 68 68 68 69 69 68 67 64 65 65 67 66 66 65 64 63 63 62 61 60 59 57 57 57
65 68 69 68 68 67 67 67 67 67 67 68 68 67 66 65 64 65 65 64 65 64 63 63 62 62 60 60 57 55 57 57
63 67 69 68 68 67 67 66 66 66 66 67 68 67 65 64 64 64 63 63 63 63 63 62 62 61 60 56 55 55 56 56
63 65 68 68 67 67 66 66 66 66 66 66 67 67 65 64 64 64 63 63 64 63 63 61 61 61 57 55 55 53 55 55
55 63 67 67 67 67 66 66 67 66 66 67 67 67 66 64 64 64 63 63 64 64 60 60 61 61 57 56 55 52 53 55
50 56 61 67 66 67 66 65 66 67 66 66 67 68 66 65 64 63 64 63 63 62 61 60 59 58 57 56 56 51 53 55
39 42 58 61 66 66 66 66 66 66 66 66 67 68 67 65 64 64 64 63 62 61 61 60 58 58 57 56 55 51 51 53
39 41 43 52 62 65 67 66 65 65 65 67 67 67 67 66 65 64 64 62 61 61 60 61 60 59 56 55 54 51 50 50
44 46 46 47 51 59 62 65 65 65 64 65 67 65 66 66 65 64 63 62 61 61 60 59 59 59 57 54 54 52 51 51
45 50 50 52 49 49 57 61 66 65 65 64 65 66 66 65 64 63 63 62 61 60 59 58 57 58 55 53 51 51 53 52
52 53 53 53 52 51 58 63 63 62 63 63 64 65 65 65 64 63 63 62 60 60 59 57 55 57 57 51 49 48 51 52
53 56 56 54 55 55 61 61 60 60 61 61 62 63 64 64 63 62 62 61 60 59 59 58 55 55 57 52 51 51 49 50
51 54 56 57 58 58 61 61 60 60 60 60 61 61 61 62 62 62 61 61 60 59 59 58 56 54 55 54 51 52 51 49
53 52 54 57 59 59 60 61 60 59 59 60 60 60 61 61 61 62 61 61 60 59 59 59 57 56 56 55 52 51 50 50
48 51 51 56 58 59 60 60 60 59 60 60 60 60 60 60 61 62 61 60 60 60 59 59 58 56 56 55 53 51 51 51
48 49 52 55 57 57 59 61 61 60 61 60 59 60 60 60 60 61 61 60 60 59 59 59 58 56 57 56 54 51 52 51

GFSFLT2_sfc_30mbdewp_129.txt.gz
Dewpoint
67 68 69 69 69 69 70 70 69 70 68 69 70 69 66 64 66 64 63 62 65 63 65 65 65 65 64 64 62 61 63 65
66 67 68 69 68 69 69 68 68 69 68 68 69 68 64 63 64 64 63 64 66 66 66 66 65 64 64 63 61 60 62 62
67 67 67 68 68 68 68 68 67 69 67 68 68 67 64 64 63 63 65 65 66 66 65 64 64 63 63 62 61 59 61 61
67 67 67 68 68 68 67 68 67 66 67 69 68 66 64 63 64 64 65 65 66 66 66 64 64 63 62 61 60 58 61 61
67 68 68 68 68 68 68 68 68 67 66 68 69 68 65 64 64 64 65 66 66 65 64 64 63 62 61 60 59 59 60 61
68 68 68 68 67 68 67 68 67 68 68 68 68 68 66 64 64 64 65 66 65 64 63 63 63 62 61 60 59 57 58 60
67 68 68 68 67 68 67 67 67 67 67 69 68 68 66 65 64 65 65 65 64 63 63 62 62 62 61 60 59 57 58 59
66 68 68 67 67 67 67 67 67 67 67 67 68 67 66 65 64 64 64 64 64 63 63 62 62 62 62 60 57 57 57 58
65 68 68 67 67 67 66 65 66 66 66 66 67 67 66 64 64 64 63 64 64 63 63 62 60 60 59 60 56 56 56 57
63 67 68 68 67 67 66 66 65 67 66 67 67 67 66 65 64 64 63 63 63 63 61 60 59 60 60 58 56 55 56 56
56 63 67 67 67 67 67 65 66 66 67 66 67 67 66 65 64 64 63 63 63 62 60 59 59 60 59 60 57 54 55 56
39 42 59 66 67 66 66 65 65 65 65 67 67 67 66 65 64 64 63 62 62 61 59 60 59 58 59 58 57 54 55 56
44 45 45 51 62 65 65 64 65 64 65 65 67 67 67 65 64 64 63 61 61 60 60 59 59 59 59 57 57 54 52 55
51 53 53 53 49 60 64 65 65 65 65 64 66 66 67 66 65 64 63 62 61 60 59 59 58 59 56 55 53 52 50 53
53 54 55 56 55 49 56 63 64 64 64 64 64 66 66 66 65 64 63 62 61 60 59 58 57 59 58 53 50 49 50 52
52 52 53 56 58 54 53 55 60 62 63 64 64 64 66 66 65 64 63 62 61 60 60 58 57 56 58 56 52 51 49 48
51 53 53 56 58 59 60 60 60 61 61 62 62 63 65 65 64 63 63 62 61 61 60 58 57 56 57 56 53 51 50 48
48 49 52 54 56 57 58 61 60 60 60 60 61 61 63 64 63 63 62 62 61 60 60 59 58 56 56 56 52 50 49 49
48 48 50 56 57 57 57 59 61 60 60 60 60 60 61 61 63 62 61 61 61 60 60 59 58 57 56 57 55 53 51 50
48 48 49 51 56 57 57 58 60 61 60 60 60 60 60 61 61 61 61 61 60 60 60 59 59 58 57 58 56 55 52 51

GFSFLT2_sfc_30mbdewp_132.txt.gz
Dewpoint
67 68 68 69 69 69 70 70 70 70 70 70 70 69 68 67 64 64 65 65 67 65 64 64 64 65 64 63 62 62 63 64
66 68 68 68 69 69 69 69 70 69 69 70 69 68 68 66 64 63 61 65 65 65 65 64 63 65 64 63 61 63 64 63
66 67 68 67 68 69 69 68 69 69 68 69 68 66 65 65 64 63 61 65 64 64 65 64 64 64 63 62 61 62 63 63
65 66 67 67 68 68 69 68 69 69 67 68 68 66 63 63 63 63 64 65 65 65 65 65 64 61 63 62 60 59 62 62
65 65 66 67 67 67 67 67 67 67 66 68 68 66 64 63 63 64 65 65 66 66 65 64 63 62 62 61 60 61 61 62
66 65 66 66 67 66 66 67 67 66 66 66 67 67 65 63 63 63 64 65 64 64 63 63 62 62 61 60 59 60 61 61
67 67 66 66 67 66 66 66 65 65 66 66 66 67 66 64 63 63 64 64 63 63 62 62 62 61 61 60 58 59 60 61
67 67 67 67 66 67 66 67 66 66 66 67 67 66 66 64 64 64 64 64 64 63 62 62 62 62 61 60 58 58 59 59
67 67 67 67 67 67 67 66 67 66 67 67 67 67 67 65 64 64 64 64 64 63 62 62 62 61 60 61 57 57 58 58
65 67 67 67 67 66 67 66 66 66 67 67 68 67 66 65 64 64 64 64 63 63 62 61 61 60 59 59 58 56 57 58
63 66 67 67 67 67 66 66 66 66 67 66 66 67 66 65 64 63 63 63 63 62 61 60 59 59 58 58 58 56 56 57
62 66 67 67 67 67 66 65 65 65 66 66 67 67 67 65 65 64 63 62 62 62 60 59 59 58 59 56 58 56 56 56
53 62 66 66 65 65 65 64 64 64 65 66 66 67 67 65 64 63 63 62 62 61 59 58 58 59 58 58 58 56 55 55
51 50 52 60 62 65 65 65 64 64 64 64 66 67 67 65 64 63 63 62 61 61 59 58 58 59 56 56 54 55 55 55
54 55 56 56 54 53 62 64 64 64 64 64 64 66 66 65 64 63 62 62 61 60 60 59 57 59 57 55 52 50 53 54
52 52 53 58 58 54 57 62 62 64 64 64 64 64 65 65 64 64 63 62 61 60 60 59 58 57 58 56 53 52 50 50
50 51 52 54 57 59 59 58 58 60 63 64 64 64 64 65 65 64 63 63 62 61 60 59 59 57 57 56 54 52 50 49
49 51 55 56 57 56 57 58 60 60 61 62 62 63 63 64 65 64 64 63 62 61 61 60 59 58 57 57 55 51 50 48
48 49 51 53 54 57 57 57 59 60 60 61 61 61 62 63 64 63 63 62 62 61 61 60 59 58 57 57 56 53 51 49
48 48 48 50 51 53 55 56 57 58 60 60 60 60 61 62 63 63 62 62 61 61 61 60 60 58 57 57 58 56 54 51

GFSFLT2_sfc_30mbdewp_138.txt.gz
Dewpoint
67 68 69 70 70 70 69 69 69 69 70 70 70 69 67 66 66 66 68 67 66 67 66 66 66 65 64 64 64 64 64 64
66 67 68 69 69 69 68 68 68 69 69 70 70 69 67 66 65 64 67 67 66 66 66 65 65 64 63 63 64 64 64 64
65 66 67 67 68 69 68 68 68 68 69 69 69 69 67 66 65 64 65 67 66 65 65 65 64 64 63 63 63 63 63 64
64 65 66 66 67 68 68 68 68 68 69 69 69 68 67 65 64 64 63 64 65 65 64 64 64 63 62 62 62 63 63 63
64 65 65 66 66 66 66 68 67 67 67 68 68 66 66 65 63 62 62 64 64 64 64 63 63 63 62 61 61 62 63 62
62 64 64 65 66 66 65 66 66 66 66 67 67 65 64 64 62 62 61 63 63 63 63 63 62 62 62 60 60 62 62 62
62 63 64 64 65 65 65 65 65 66 66 67 66 65 64 63 61 61 61 63 63 63 63 62 61 61 61 59 60 61 61 61
62 63 64 64 65 65 64 65 65 65 65 67 66 66 65 63 62 61 61 63 63 62 62 61 61 61 60 59 60 60 59 59
62 63 63 64 64 64 64 64 65 64 64 66 67 67 66 64 62 62 62 62 62 61 61 60 61 61 60 59 59 60 60 60
59 64 63 63 64 64 64 64 64 63 64 64 64 65 66 65 63 62 62 62 62 61 60 59 60 60 59 58 58 59 60 60
44 64 64 63 63 64 63 63 63 63 63 63 63 63 65 65 64 63 63 62 62 60 60 60 60 59 59 58 58 58 59 60
34 61 65 64 64 64 64 64 63 63 63 63 63 64 65 65 65 64 63 62 62 61 60 60 60 59 59 58 58 58 59 59
30 55 65 65 64 64 64 63 63 63 63 64 64 64 65 65 64 64 63 62 61 61 61 59 59 60 57 57 57 57 58 58
37 44 63 65 65 65 65 64 64 64 65 65 65 65 65 64 64 63 63 62 63 62 61 59 59 59 57 55 53 54 56 57
48 47 59 65 65 65 63 64 63 63 63 64 65 65 66 65 65 64 63 63 62 62 60 60 58 59 57 54 51 50 53 55
56 61 63 64 65 64 63 62 61 62 63 64 63 65 65 65 65 64 64 63 62 62 61 60 59 57 58 56 55 54 50 50
57 59 59 59 61 62 61 61 61 62 63 63 63 63 64 64 64 64 64 63 63 62 61 60 60 58 57 56 54 53 52 51
55 57 56 57 57 57 57 58 58 58 59 61 63 61 62 63 63 63 63 62 62 61 61 60 60 59 58 57 55 53 51 50
55 55 55 55 55 55 56 56 56 57 58 59 60 60 60 60 61 61 62 62 62 62 61 60 60 59 59 57 57 56 53 52
50 50 50 49 49 49 49 51 54 56 57 58 59 60 60 60 61 61 62 62 62 61 61 61 60 60 59 59 58 57 56 53

GFSFLT2_sfc_30mbdewp_141.txt.gz
Dewpoint
68 69 69 70 70 70 69 69 69 69 70 70 70 68 67 67 67 68 68 68 67 67 67 66 65 65 64 64 64 64 63 64
67 69 68 69 69 69 69 68 69 69 69 70 69 68 66 66 67 67 67 67 67 66 66 66 64 64 64 64 64 64 64 64
67 67 67 67 68 69 68 68 68 69 69 69 69 67 66 65 64 66 67 66 66 66 65 65 65 63 63 64 64 63 64 64
65 65 65 66 66 67 69 68 68 68 68 69 69 68 67 65 64 65 66 66 65 66 65 65 64 63 63 64 63 62 63 63
64 64 65 65 66 66 68 67 68 68 68 68 68 68 67 66 64 63 64 66 65 64 64 64 64 63 63 63 63 63 62 63
62 64 64 65 65 66 66 66 66 67 67 68 67 66 66 66 64 63 62 61 63 63 63 64 64 63 63 62 61 61 63 64
60 63 64 64 64 65 66 66 66 66 66 67 67 66 65 66 65 62 60 61 63 63 63 62 63 63 63 61 60 62 62 62
61 61 63 64 64 65 65 65 65 65 66 66 67 66 66 65 65 63 62 61 62 62 62 62 62 62 61 61 60 61 61 60
61 62 63 63 63 64 65 64 65 64 65 66 67 66 66 65 65 64 62 62 63 62 63 62 63 62 61 61 60 60 60 58
51 61 63 63 63 64 64 64 65 64 64 65 66 66 66 65 64 64 63 62 63 63 62 61 62 61 61 60 59 59 59 59
37 58 63 63 64 63 64 64 64 64 64 64 65 66 66 65 65 65 64 63 62 62 62 60 60 61 60 60 59 58 60 60
31 41 59 63 64 64 64 64 64 64 64 64 64 64 66 66 65 64 63 63 62 62 60 61 60 60 60 59 59 59 60 60
35 36 44 62 63 63 62 62 63 63 64 63 63 63 64 65 64 64 64 63 62 62 61 60 60 60 59 59 59 59 59 60
40 40 41 55 61 63 63 62 63 63 63 63 63 63 63 64 64 64 64 63 62 62 61 59 60 60 58 57 54 55 58 58
39 43 45 49 61 63 63 64 64 63 63 63 64 63 64 64 64 64 64 63 62 62 61 60 58 59 59 56 52 52 55 57
48 52 53 49 62 63 63 61 60 62 63 64 64 65 65 65 65 64 64 63 62 62 62 61 60 58 60 59 56 54 51 51
54 57 59 57 61 63 63 62 62 63 63 64 64 65 64 65 64 64 64 64 63 63 62 61 61 59 59 58 56 55 54 51
57 57 58 60 61 62 63 62 58 57 58 61 62 63 64 64 63 64 64 64 63 63 62 61 61 60 59 59 57 54 53 52
53 54 52 53 56 58 59 59 58 58 58 59 58 61 61 62 64 63 64 63 63 63 62 61 61 60 59 59 59 57 56 54
47 47 48 49 50 50 52 53 55 55 56 58 59 61 61 61 60 61 63 63 63 63 62 61 61 60 60 59 59 59 58 54

GFSFLT2_sfc_30mbdewp_144.txt.gz
Dewpoint
67 68 69 70 70 69 69 69 69 70 70 70 70 69 68 68 69 69 69 69 69 68 67 66 66 66 65 65 64 63 58 58
66 67 68 68 68 69 69 69 69 69 70 70 69 68 67 67 68 68 69 68 68 67 66 65 65 65 64 64 64 64 59 59
66 66 67 67 67 68 69 68 68 69 69 69 68 65 66 66 65 67 67 67 67 66 66 64 64 64 64 64 64 59 59 60
64 66 67 67 67 67 68 67 67 67 66 67 67 64 64 63 64 67 67 66 66 66 66 65 63 60 62 64 59 59 59 58
62 65 66 66 66 67 67 65 65 66 66 66 66 65 65 63 63 63 65 65 63 64 64 63 61 58 58 58 58 60 59 58
60 62 64 66 65 66 66 67 66 65 65 67 68 67 66 64 61 59 60 61 60 61 61 61 61 60 59 60 60 57 58 61
56 61 63 64 65 64 66 66 66 64 65 67 68 66 65 64 63 61 58 58 59 59 59 61 62 60 59 60 59 58 61 64
54 58 62 63 63 64 64 64 64 65 64 66 68 65 65 65 64 62 59 57 58 59 59 60 60 59 59 60 58 58 60 62
54 57 59 61 61 63 63 62 63 63 63 66 67 67 66 66 64 63 61 59 59 60 60 60 59 59 59 60 58 58 58 60
40 56 59 59 60 61 61 60 62 62 62 63 66 67 67 66 65 63 63 61 60 60 60 62 59 58 57 57 56 56 58 58
32 38 53 61 62 62 62 61 62 61 61 62 64 66 67 66 64 65 65 63 62 60 60 60 59 57 56 57 56 56 57 56
34 35 38 52 61 64 63 61 61 60 60 61 63 66 66 66 65 64 65 64 63 62 61 60 59 57 55 56 57 57 56 57
36 37 38 41 46 56 58 59 60 61 61 61 62 64 66 66 65 65 65 64 64 64 63 61 60 60 57 58 59 58 58 57
40 37 35 36 37 44 53 57 58 59 61 62 63 63 65 66 66 65 64 63 63 64 62 61 61 61 58 57 55 57 58 58
40 41 38 38 41 40 49 57 59 61 63 64 64 63 63 64 64 65 64 64 63 63 62 61 59 61 60 56 54 53 55 57
44 44 43 42 43 47 45 54 57 61 61 63 63 63 63 64 64 64 64 64 63 63 63 62 61 58 60 59 57 54 53 54
49 47 49 51 52 52 50 54 58 60 62 62 62 63 64 64 65 64 62 64 63 63 62 62 62 60 59 59 58 57 54 50
45 52 55 56 59 58 57 59 61 61 62 63 63 64 64 64 64 63 63 63 61 60 62 62 62 61 60 60 58 57 55 52
38 44 47 50 53 57 61 61 60 60 60 61 61 59 58 55 55 61 62 56 58 59 61 62 62 61 60 60 60 59 57 54
35 37 42 45 49 51 53 57 59 59 58 58 57 58 60 57 54 55 62 63 62 62 63 63 62 62 61 61 60 60 60 58

GFSFLT2_sfc_30mbdewp_147.txt.gz
Dewpoint
68 69 69 69 69 69 69 69 69 70 70 70 70 70 69 69 69 69 70 70 70 68 67 67 67 67 66 65 65 64 63 55
66 68 68 68 68 69 69 68 68 69 70 70 70 69 68 68 68 69 69 69 68 67 67 66 66 66 65 64 64 63 62 62
66 67 67 67 67 68 68 68 68 69 69 70 69 66 66 67 65 68 69 68 67 67 66 65 65 65 64 64 64 58 57 60
64 66 66 66 63 65 67 67 66 66 66 67 67 64 64 63 63 67 68 67 67 66 65 65 64 60 62 64 61 58 58 56
61 64 67 66 63 64 65 64 65 65 65 65 66 64 64 62 64 65 65 66 65 65 65 62 59 58 57 58 57 59 55 56
57 61 65 66 63 64 64 61 63 63 63 66 66 66 65 63 61 62 61 62 60 62 61 61 59 60 59 56 56 56 58 57
55 59 61 64 64 62 63 63 63 62 62 66 65 64 65 64 62 61 59 59 59 60 59 60 60 59 58 56 56 56 59 60
50 56 59 62 63 62 64 63 63 64 63 63 67 66 67 63 63 61 58 58 58 59 58 58 58 61 59 59 57 57 58 58
36 49 57 60 61 62 62 62 63 63 64 65 68 68 66 64 63 61 59 59 60 59 59 58 58 58 59 59 58 57 58 58
33 35 52 59 60 61 60 59 61 62 64 64 67 68 67 65 63 62 60 60 59 59 59 58 57 57 57 59 59 57 58 59
39 38 39 49 61 61 61 61 60 60 61 63 65 67 67 66 64 63 63 62 60 60 59 60 59 58 57 58 58 56 59 58
39 40 42 41 47 59 60 60 61 60 60 61 63 67 67 67 65 64 63 64 62 60 60 59 61 58 55 56 58 58 59 59
44 41 42 41 38 40 52 56 58 60 61 61 62 64 67 67 66 64 65 64 63 63 62 61 60 60 58 58 58 59 58 59
43 46 46 41 40 38 39 47 53 56 60 61 63 63 66 66 66 65 65 64 64 64 63 62 62 61 58 57 56 58 58 59
42 44 48 51 44 42 41 42 51 55 57 59 62 63 64 66 66 66 65 65 64 64 64 62 61 62 60 57 55 53 55 57
39 40 42 49 54 50 45 45 43 51 56 58 60 63 64 65 66 66 66 66 64 64 64 62 61 59 61 61 59 55 53 53
38 37 38 41 44 52 55 56 49 48 54 57 60 62 64 64 65 65 64 65 64 64 64 62 62 60 60 59 60 59 58 56
36 36 36 37 40 44 48 54 59 53 52 56 60 62 63 64 64 64 63 64 64 63 63 62 60 61 60 60 59 58 57 56
33 35 35 35 38 40 43 46 51 60 57 57 60 62 63 63 63 63 63 63 62 62 63 62 62 61 61 60 60 59 59 58
34 32 34 35 35 38 41 43 46 57 59 59 60 60 58 58 59 58 59 62 60 60 59 59 60 60 61 61 60 60 60 59